GFSGBSN_prec_cloud_003.txt.gz
Cloud_Cover
12 47 46 43 56 100 26 86 46 1 75 94 10 0 0 0 0 0 0 0 0 0 0 0 0 5 0 0 0 0 0 0 0 0 0 0 0 3 5 4 2 1 36 25 53 5 22
12 98 100 97 46 67 2 7 16 1 75 1 0 0 0 0 0 0 0 0 0 0 0 0 6 6 0 0 0 0 0 0 0 0 0 0 0 0 5 0 5 19 13 5 5 7 5
76 46 100 10 0 0 0 0 0 0 2 6 5 0 0 0 0 0 0 0 0 0 1 10 16 0 0 0 0 0 0 0 0 0 0 0 0 0 0 0 1 5 4 5 2 2 4
34 6 1 0 0 0 0 0 0 0 0 0 0 0 0 0 0 0 0 0 0 13 96 6 34 0 0 0 0 0 0 0 0 0 0 0 0 0 0 2 5 1 2 7 21 2 3
71 39 35 1 0 0 0 0 0 0 0 0 0 0 0 0 0 0 0 0 0 43 32 0 3 0 0 0 0 0 0 0 0 0 0 0 0 0 0 0 1 5 5 5 100 2 3
92 64 22 1 0 0 0 0 0 0 0 0 0 0 0 0 0 0 0 0 0 71 7 0 0 0 0 0 0 0 0 0 0 0 0 0 0 0 0 0 0 5 5 85 94 16 2
61 28 0 6 1 0 0 0 0 0 0 0 0 0 0 0 0 0 0 0 0 0 0 0 0 0 0 0 0 0 0 0 0 0 0 0 0 0 0 0 0 5 100 79 100 85 0
99 95 0 0 0 0 0 0 0 0 0 0 0 0 0 0 0 0 4 0 0 0 0 0 0 0 0 0 0 0 0 0 0 0 0 0 0 0 0 0 0 4 20 94 100 59 58
0 0 0 3 12 0 0 0 0 0 0 0 0 0 0 0 0 0 0 0 0 0 0 0 0 0 0 0 0 0 0 0 0 0 0 0 0 0 0 0 0 0 5 73 97 48 100
19 68 2 47 53 0 0 0 0 0 0 0 0 0 0 0 0 0 0 0 0 0 0 0 0 0 0 0 0 0 0 0 0 0 0 0 0 0 0 0 0 0 4 64 66 100 100
0 15 11 16 5 26 1 4 5 5 5 5 0 0 0 0 0 0 0 0 0 0 0 0 0 0 0 0 0 0 0 0 0 0 0 0 0 0 0 0 0 0 1 5 73 100 98
0 1 4 5 10 5 62 26 5 5 5 5 5 5 49 7 3 0 0 0 0 0 0 0 0 0 0 0 0 0 0 0 0 0 0 0 0 0 0 0 0 0 0 5 28 100 99
15 5 5 5 18 22 96 48 5 16 12 98 86 62 73 19 5 5 5 0 0 0 1 1 4 0 0 0 0 0 0 0 0 0 0 0 0 0 0 0 0 0 0 5 76 98 37
61 1 5 5 34 20 5 5 5 5 8 8 5 5 5 42 5 7 5 1 0 5 49 0 0 0 3 0 0 0 0 0 0 0 0 0 0 0 0 4 0 0 0 0 5 19 86
5 3 0 5 5 4 8 93 100 90 17 10 7 4 0 2 5 3 1 0 5 10 9 15 47 98 6 0 0 0 0 0 0 0 0 0 0 0 0 1 1 0 0 0 5 57 58
0 10 1 1 2 5 13 23 38 40 36 96 100 100 100 99 44 5 1 16 31 100 100 84 12 5 6 81 10 2 0 0 0 0 0 0 0 0 0 0 0 0 0 0 0 16 93
0 2 4 5 5 62 98 59 46 79 6 10 44 29 5 10 23 7 10 78 15 80 58 61 74 51 5 9 14 95 6 1 0 0 0 0 0 0 0 0 1 2 0 0 1 4 6
0 2 5 5 5 5 5 5 5 36 86 22 75 61 17 44 5 5 4 5 9 26 5 7 100 100 100 56 6 5 56 40 0 0 0 0 0 0 0 0 0 0 0 0 3 0 4
5 5 5 5 5 5 5 5 5 5 7 64 7 5 2 2 5 5 5 27 76 13 20 43 82 100 100 100 5 5 5 95 3 0 0 0 0 0 0 0 0 0 0 0 0 3 5
5 5 5 5 5 5 5 5 42 5 8 54 47 3 6 21 4 20 61 98 100 100 96 27 100 100 100 99 9 12 5 90 5 8 5 0 0 0 0 0 0 0 0 0 0 0 1
28 6 5 5 5 5 5 22 90 43 27 89 76 19 90 18 100 100 89 53 100 100 100 100 100 100 100 100 87 5 50 100 33 28 4 3 1 0 0 2 4 1 0 0 0 0 0
17 5 5 51 70 47 92 38 15 59 87 98 85 100 95 76 72 28 100 100 100 100 100 100 100 100 100 100 100 100 100 100 100 20 5 5 5 4 0 0 1 5 5 0 0 0 0
5 5 66 17 95 84 65 94 94 99 82 100 100 51 99 32 95 92 5 100 100 100 100 100 100 100 100 100 100 93 83 83 100 81 14 19 51 18 5 6 88 52 0 0 3 2 0
6 16 5 12 5 10 34 57 97 100 9 94 100 100 98 34 100 100 100 95 100 100 100 100 100 100 100 100 52 34 99 100 100 100 100 94 41 84 64 100 92 0 0 32 12 5 10
5 42 5 30 73 5 93 100 99 100 100 81 78 100 100 58 100 100 97 100 100 100 14 100 100 100 100 100 100 100 100 100 100 100 100 100 100 100 77 77 12 1 100 2 9 3 4
5 5 32 79 81 100 100 94 93 95 100 100 100 95 100 100 38 99 100 100 100 100 100 100 100 100 100 100 100 100 100 100 100 100 82 100 100 52 100 81 49 14 100 2 2 0 0
5 27 9 91 100 100 100 100 94 95 98 60 100 100 100 100 100 87 98 100 100 100 100 93 65 100 100 100 100 100 100 98 100 100 94 100 100 18 22 52 89 78 0 4 4 37 60
43 82 100 100 100 100 100 100 100 94 91 58 84 97 95 100 100 100 100 75 65 98 100 100 100 100 100 100 100 100 100 100 100 100 100 100 100 76 62 97 58 25 34 26 18 5 2
31 100 58 48 100 100 100 100 100 100 74 38 94 63 100 100 96 100 97 86 100 100 100 100 100 100 100 100 100 100 100 100 100 100 100 100 100 100 92 96 25 13 51 3 0 0 2

GFSGBSN_prec_cloud_006.txt.gz
Cloud_Cover
69 16 33 23 4 0 10 0 0 0 0 0 0 0 0 0 0 0 0 0 0 0 0 0 0 2 0 0 0 0 0 0 0 0 0 0 0 0 0 0 1 34 82 44 99 5 10
13 3 12 36 39 4 22 72 0 0 0 0 0 0 0 0 0 0 0 0 0 0 0 0 1 23 0 0 0 0 0 0 0 0 0 0 0 0 0 0 1 85 47 56 33 6 15
100 100 6 80 0 0 0 5 0 0 0 0 0 0 0 0 0 0 0 0 0 0 0 0 29 1 0 0 0 0 0 0 0 0 0 0 0 0 0 0 0 35 99 33 2 3 7
100 96 96 61 23 0 0 0 0 0 0 0 0 0 0 0 0 0 0 0 0 0 4 41 58 0 0 0 0 0 0 0 0 0 0 0 0 0 0 0 0 0 20 34 36 17 0
27 48 5 7 0 0 0 0 0 0 0 0 0 0 0 0 0 0 0 0 0 0 56 3 3 0 0 0 0 0 0 0 0 0 0 0 0 0 0 0 0 0 3 5 100 92 56
5 21 5 5 5 5 4 0 3 0 0 0 0 0 0 0 0 0 0 0 0 14 20 0 0 0 0 0 0 0 0 0 0 0 0 0 0 0 0 0 0 0 5 16 68 40 97
3 10 1 0 0 0 0 0 0 0 0 0 0 0 0 0 0 0 0 0 0 0 0 0 0 0 0 0 0 0 0 0 0 0 0 0 0 0 0 0 0 0 64 14 100 77 100
0 0 0 0 0 0 0 0 0 0 0 0 0 0 0 0 0 0 0 0 0 0 0 0 0 0 0 0 0 0 0 0 0 0 0 0 0 0 0 0 0 0 16 27 100 98 100
0 0 0 0 0 0 0 0 0 0 0 0 0 0 0 0 0 0 0 0 0 0 0 0 0 0 0 0 0 0 0 0 0 0 0 0 0 0 0 0 0 0 0 21 86 100 68
0 0 0 0 0 0 0 0 0 0 0 0 0 0 0 0 0 0 0 0 0 0 0 0 0 0 0 0 0 0 0 0 0 0 0 0 0 0 0 0 0 0 0 3 24 100 62
0 0 0 0 0 0 0 0 0 0 0 4 0 0 5 5 0 0 4 0 0 0 0 0 0 0 0 0 0 0 0 0 0 0 0 0 0 0 0 5 0 0 0 0 5 98 41
0 0 0 0 0 0 0 0 0 1 3 5 5 5 13 5 23 4 5 5 0 0 0 0 0 5 0 0 0 0 0 0 0 0 0 0 0 0 0 1 0 0 0 0 2 19 89
0 0 0 0 0 0 0 0 2 5 5 5 19 10 5 5 3 3 16 57 5 2 5 0 0 0 0 0 0 0 0 0 0 0 0 0 0 0 0 0 0 0 0 0 0 3 1
0 0 0 1 1 0 0 4 5 5 5 5 5 5 5 13 5 5 1 1 5 100 65 2 0 0 0 0 0 0 0 0 0 0 0 0 0 0 0 0 0 1 0 0 0 0 2
0 0 0 0 0 0 0 4 4 5 5 1 0 0 5 6 5 5 4 0 5 18 87 6 2 0 0 0 1 0 0 0 0 0 0 0 0 0 0 0 0 0 0 0 0 0 3
0 0 0 0 1 1 3 4 4 1 0 0 1 4 5 5 5 37 13 65 16 64 5 4 0 1 0 0 2 0 0 0 0 0 0 0 0 0 0 0 0 0 0 0 0 0 0
0 0 0 0 2 5 5 5 24 5 0 0 0 0 0 0 5 1 2 21 5 6 5 5 4 0 2 0 0 0 0 0 0 0 0 0 0 0 0 0 0 0 0 0 0 0 0
0 0 0 1 0 0 0 0 5 5 4 2 5 4 4 60 18 34 4 0 0 2 4 5 1 5 5 5 0 0 0 0 2 0 0 5 0 0 0 0 0 0 0 0 0 0 0
5 5 5 5 5 5 5 5 5 5 5 47 15 4 0 4 6 2 5 5 11 10 23 6 17 0 5 5 0 0 0 0 5 3 6 11 5 0 0 0 0 0 0 0 0 0 0
0 2 3 5 5 5 5 5 29 7 33 54 68 29 0 9 16 39 24 10 28 31 90 100 100 100 35 5 10 5 0 2 44 5 2 89 5 0 0 0 2 0 0 0 0 0 0
0 0 3 5 5 5 5 5 44 26 23 59 85 45 88 70 2 100 100 46 73 88 100 100 100 100 100 77 15 14 30 3 5 4 0 5 5 0 0 0 4 0 0 0 0 0 0
2 5 5 5 5 10 5 46 29 6 5 88 99 76 31 71 6 35 100 100 64 47 92 100 100 100 100 25 73 72 79 99 12 4 5 5 2 5 0 0 0 74 5 2 0 0 0
5 5 5 5 5 5 5 19 99 98 78 62 94 46 97 16 76 80 2 74 100 100 100 100 100 100 100 100 96 6 38 4 0 11 36 8 0 1 0 0 27 85 0 52 16 0 0
0 3 5 30 5 5 6 91 76 100 61 80 84 100 100 100 95 97 100 7 54 99 87 98 47 100 100 100 100 100 100 5 3 5 19 88 5 39 4 56 72 2 3 10 4 12 0
0 2 5 5 5 5 100 100 87 100 99 100 94 100 100 100 81 85 84 98 78 28 53 58 80 95 100 100 100 100 100 100 100 96 100 100 99 100 98 90 24 5 7 96 96 2 0
3 5 25 5 5 26 100 100 100 100 100 100 98 100 100 100 91 80 99 80 86 100 20 68 100 100 100 100 100 100 100 100 100 100 100 100 100 100 100 79 38 74 100 49 93 0 0
5 5 14 5 5 6 40 62 100 100 100 100 100 100 100 100 100 26 20 98 45 82 71 76 98 48 85 100 100 100 100 100 100 100 100 100 100 100 100 100 100 100 100 74 82 2 4
5 5 5 5 5 33 39 53 100 97 100 100 59 100 99 100 100 39 5 75 90 100 100 100 98 93 83 100 100 100 100 100 100 100 100 100 100 100 100 100 100 100 100 100 100 98 76
5 5 1 5 5 5 5 49 54 94 34 9 78 67 99 100 86 17 14 45 100 100 100 100 100 100 100 100 100 100 100 100 100 100 100 100 100 100 100 100 100 100 95 100 100 25 5

GFSGBSN_prec_cloud_009.txt.gz
Cloud_Cover
100 94 89 51 0 0 0 0 0 0 0 0 0 0 0 0 0 0 0 0 0 0 0 0 0 2 0 0 0 0 0 0 0 0 0 0 0 0 0 0 4 5 54 100 86 100 64
100 100 100 100 0 0 0 0 0 0 0 0 0 0 0 0 0 0 0 0 0 0 0 0 2 41 3 0 0 0 0 0 0 0 0 0 0 0 0 0 0 0 32 92 96 58 87
100 96 5 24 2 0 0 0 0 0 0 0 0 0 0 0 0 0 0 0 0 0 0 0 33 14 0 0 0 0 0 0 0 0 0 0 0 0 0 0 0 0 5 44 100 83 51
96 100 41 0 0 0 0 0 0 0 0 0 0 0 0 0 0 0 0 0 0 0 0 2 100 0 0 0 0 0 0 0 0 0 0 0 0 0 0 0 0 0 1 5 77 4 34
9 6 5 2 5 0 0 0 0 0 0 0 0 0 0 0 0 0 0 0 0 0 0 60 24 0 0 0 0 0 0 0 0 0 0 0 0 0 0 0 0 0 0 1 3 100 5
100 96 37 18 5 5 4 5 5 3 0 0 0 0 0 0 0 0 0 0 0 0 12 1 0 0 0 0 0 0 0 0 0 0 0 0 0 0 0 0 0 0 0 0 5 16 53
5 5 5 4 5 5 5 4 4 1 0 0 0 0 0 0 0 0 0 0 0 0 0 0 0 0 0 0 0 0 0 0 0 0 0 0 0 0 0 0 0 0 0 0 5 90 99
0 0 0 0 0 0 0 0 0 0 0 0 0 0 0 0 0 0 0 0 0 0 0 0 0 0 0 0 0 0 0 0 0 0 0 0 0 0 0 0 0 0 0 0 39 100 100
67 0 0 0 0 0 0 0 0 0 0 0 0 0 0 0 0 0 0 0 0 0 0 0 0 0 0 0 0 0 0 0 0 0 0 0 0 0 0 0 0 0 0 0 32 68 100
0 0 0 0 0 0 0 0 0 0 0 0 0 0 0 0 0 0 0 0 0 0 0 5 0 0 0 0 0 0 0 0 0 0 0 0 0 0 0 0 0 0 0 0 5 80 74
0 0 0 0 0 0 0 0 0 0 0 0 0 0 0 0 0 0 0 0 0 0 0 2 3 0 0 0 0 0 0 0 0 0 0 0 0 0 0 0 0 0 0 0 3 89 61
0 0 0 0 0 0 0 0 0 0 0 0 0 0 0 0 1 0 0 0 0 0 14 2 0 46 2 0 0 0 0 0 0 0 0 0 0 0 0 0 0 0 0 0 0 73 74
0 0 0 0 0 0 0 0 0 0 0 0 0 0 0 0 0 0 0 0 3 0 74 5 0 0 3 2 0 0 0 0 0 0 0 0 0 0 0 0 0 0 0 0 0 0 0
0 0 0 0 0 0 0 0 0 0 0 0 0 0 0 0 0 0 0 0 0 6 23 3 0 2 2 5 5 0 0 0 0 0 0 0 0 0 0 0 0 0 0 0 0 0 0
0 0 0 0 0 0 0 0 0 0 0 0 0 0 0 0 0 0 0 0 0 0 0 0 0 0 0 4 67 3 0 0 0 0 0 0 0 0 0 0 0 0 0 0 0 0 0
0 0 0 0 0 0 0 0 0 0 0 0 0 0 0 0 0 0 0 0 0 0 0 0 0 0 0 0 0 0 0 0 0 0 0 0 0 0 0 0 0 0 0 0 0 0 0
0 0 0 0 2 0 0 2 5 4 0 0 0 3 0 0 0 0 0 0 0 0 0 0 0 0 0 0 0 0 0 0 0 0 0 0 0 0 0 0 0 0 0 0 0 0 0
0 0 0 2 5 5 19 5 5 5 0 0 5 8 0 0 0 5 1 0 0 0 0 0 0 0 0 0 0 0 0 5 2 0 0 0 0 0 0 0 0 0 0 0 0 0 0
0 0 0 0 0 5 3 4 5 5 5 6 28 4 0 0 4 0 29 4 1 2 64 5 7 42 5 0 0 0 0 0 0 22 3 0 0 0 5 80 40 1 0 0 0 0 0
0 0 0 0 0 1 0 0 5 5 7 5 24 24 0 0 86 100 12 1 1 15 20 55 36 87 5 3 4 0 0 0 0 0 0 3 0 2 2 5 2 4 17 0 0 0 0
0 0 3 0 2 0 0 0 5 8 32 31 36 39 83 31 6 38 100 77 36 4 3 29 91 86 99 45 5 1 2 0 0 0 5 43 0 0 2 5 2 4 2 2 0 0 0
0 0 0 1 0 0 2 5 5 81 100 95 100 90 6 6 5 32 95 100 100 60 73 3 73 64 99 99 85 100 6 0 0 0 5 21 0 0 0 13 14 0 0 0 5 2 0
5 0 2 3 5 3 5 5 5 100 86 100 100 97 100 100 5 22 5 100 97 96 100 83 97 75 97 100 100 100 89 86 5 22 86 42 0 2 0 5 6 0 0 1 0 0 0
0 2 0 5 10 1 0 5 5 56 92 90 100 100 100 100 94 20 5 5 63 97 82 100 90 80 2 100 100 100 100 100 96 100 100 67 8 0 0 5 64 8 5 0 0 1 2
5 5 7 3 7 5 0 5 8 81 100 100 100 100 100 100 100 80 62 86 18 3 5 6 100 78 40 99 62 100 100 100 100 100 100 100 100 11 2 0 0 0 5 6 88 4 100
0 5 5 5 5 1 3 5 6 32 100 55 73 100 100 100 100 5 9 9 5 8 4 14 6 100 100 96 4 98 100 100 100 100 100 100 100 100 30 4 0 4 20 100 7 5 5
0 4 0 0 5 4 5 5 5 5 68 99 100 100 100 100 100 11 42 44 5 11 68 95 61 28 100 100 17 18 100 100 88 100 100 100 100 100 25 4 9 4 91 100 100 5 2
1 4 5 5 5 11 10 2 5 5 5 49 41 98 97 100 99 26 3 47 7 12 83 80 33 51 100 89 12 31 100 88 100 100 100 100 100 100 100 91 100 100 100 100 55 2 3
5 5 5 5 5 5 5 5 5 5 5 5 5 20 81 100 97 4 4 0 0 11 66 100 100 100 100 100 100 79 100 89 38 100 100 100 100 100 100 99 97 100 100 100 37 5 7

GFSGBSN_prec_cloud_012.txt.gz
Cloud_Cover
100 100 100 82 0 0 0 0 1 0 0 0 0 0 0 0 0 0 0 0 0 0 0 0 0 2 1 0 0 0 0 0 0 0 0 0 0 0 0 4 39 0 5 62 100 100 90
100 100 38 9 0 0 0 3 0 0 0 0 0 0 0 0 0 0 0 0 0 0 0 0 2 38 18 0 0 0 0 0 0 0 0 0 0 0 0 0 2 6 2 24 24 65 99
3 4 0 0 0 0 0 0 0 0 0 0 0 0 0 0 0 0 0 0 0 0 0 0 12 14 0 0 0 0 0 0 0 0 0 0 0 0 0 0 0 0 0 0 4 34 91
5 2 0 0 0 0 0 0 0 0 0 0 0 0 0 0 0 0 0 0 0 0 0 0 34 6 0 0 0 0 0 0 0 0 0 0 0 0 0 0 0 0 0 0 0 8 4
5 5 2 5 5 0 0 0 0 0 0 0 0 0 0 0 0 0 0 0 0 0 0 80 27 4 0 0 0 0 0 0 0 0 0 0 0 0 0 0 0 0 0 0 0 17 98
46 5 7 5 10 54 87 74 27 5 5 5 5 5 5 5 0 0 0 0 0 0 2 2 0 0 0 0 0 0 0 0 0 0 0 0 0 0 0 0 0 0 0 0 0 2 53
100 100 68 7 5 6 33 5 5 5 3 2 2 5 5 2 0 0 0 24 0 0 0 0 0 0 0 0 0 0 0 0 0 0 0 0 0 0 0 0 0 0 0 0 0 64 23
92 35 28 8 13 5 2 0 0 0 0 0 0 0 0 0 0 0 0 0 0 0 0 0 0 0 0 0 0 0 0 0 0 0 0 0 0 0 0 0 0 0 0 0 0 4 5
3 1 0 3 5 1 0 0 0 0 0 0 0 0 0 0 0 0 0 0 0 0 0 0 0 0 0 0 0 0 0 0 0 0 0 0 0 0 0 0 0 0 0 0 0 5 4
0 0 0 0 0 0 0 0 0 0 0 0 0 0 0 10 0 0 0 0 0 0 0 0 0 0 0 0 0 0 0 0 0 0 0 0 0 0 0 0 0 0 0 0 4 4 5
0 0 0 0 0 0 0 0 0 0 0 0 0 0 0 4 20 0 0 0 0 0 0 5 0 0 0 0 0 0 0 0 0 0 0 0 0 0 0 0 0 0 0 0 3 34 51
0 0 0 0 0 0 0 0 0 0 0 0 0 0 0 16 0 0 0 0 0 0 0 58 0 0 0 0 0 0 0 0 0 0 0 0 0 0 0 0 0 0 0 0 3 59 38
0 0 0 0 0 0 0 0 0 0 0 0 0 0 0 0 2 0 0 0 0 0 0 1 0 0 5 2 0 0 0 0 0 0 0 0 0 0 0 0 0 0 0 0 0 2 5
0 0 0 0 0 0 0 0 0 0 0 0 0 0 0 0 0 0 0 0 0 0 0 0 0 0 5 13 4 0 0 0 0 0 0 0 0 0 0 0 0 0 0 0 0 0 0
0 0 0 0 0 0 0 0 0 0 0 0 0 0 0 0 0 0 0 0 0 0 0 0 0 0 0 0 5 0 0 0 0 0 0 0 0 0 0 0 0 0 0 0 0 0 0
0 0 0 0 0 0 0 0 0 1 0 0 40 23 0 0 0 0 0 0 0 0 0 0 0 0 0 0 0 0 1 0 0 0 0 0 0 0 0 0 0 0 0 0 0 0 0
0 0 0 0 0 0 0 0 0 2 0 0 43 2 0 0 0 0 0 0 0 0 0 0 0 0 0 0 0 0 0 0 0 0 0 0 0 0 0 0 0 0 0 0 0 0 0
0 0 0 0 0 0 0 3 5 5 4 0 2 5 0 0 0 0 0 0 0 0 0 0 0 0 0 0 0 0 5 5 1 0 0 0 0 0 0 0 0 0 0 0 0 0 0
0 0 0 0 0 0 0 2 5 5 5 6 55 3 0 1 18 16 66 84 98 100 28 0 0 0 0 0 0 0 0 5 0 3 4 2 2 2 5 5 6 0 4 0 0 0 0
0 0 0 0 0 2 4 1 5 5 5 5 32 56 0 63 100 91 18 100 100 100 100 95 4 1 2 0 1 0 0 5 1 0 0 0 5 7 95 50 7 1 1 2 1 20 5
0 0 3 7 5 1 1 0 0 5 5 26 52 10 5 8 82 100 100 100 100 95 100 56 85 20 2 4 2 2 0 0 0 0 0 0 0 5 52 83 5 5 69 5 5 14 3
0 0 0 0 5 3 5 2 0 5 5 87 92 97 89 89 5 19 100 100 100 97 14 3 32 9 7 5 5 5 2 0 4 2 0 0 0 0 5 10 5 5 37 6 5 75 7
0 0 4 5 1 1 5 0 4 8 5 38 13 66 100 100 98 17 5 100 100 97 100 100 68 83 6 1 4 5 5 6 14 98 82 13 0 0 0 0 0 0 36 47 73 18 27
0 0 1 2 5 5 10 5 2 5 22 45 70 93 100 98 100 61 33 5 24 64 100 43 64 73 3 3 5 0 3 44 100 100 100 100 45 0 0 0 4 5 1 2 4 5 5
8 12 0 0 1 5 5 4 13 5 100 100 99 91 100 100 100 100 79 6 5 4 2 40 100 53 17 88 6 0 0 17 100 100 100 100 100 48 4 5 2 0 5 1 0 0 2
0 0 0 0 0 4 5 96 91 8 99 100 72 92 100 100 100 30 82 18 44 44 5 5 1 5 5 6 6 55 5 2 54 100 100 100 100 100 100 100 67 0 0 4 0 0 0
0 3 0 4 5 5 5 5 2 2 50 91 46 90 98 100 98 81 91 12 9 31 32 5 5 50 6 54 5 5 5 0 4 100 100 100 100 100 100 100 59 0 0 5 2 2 0
0 0 0 3 5 5 5 5 5 5 5 36 7 10 38 100 54 60 28 95 99 42 50 6 56 95 5 100 49 14 4 0 0 12 100 100 100 100 100 100 98 10 2 5 7 0 0
0 0 5 5 5 5 5 4 5 5 5 5 82 23 56 100 89 6 5 5 4 7 10 9 46 89 90 100 100 100 24 17 5 39 78 100 100 100 100 100 93 16 5 4 95 5 0

GFSGBSN_prec_cloud_015.txt.gz
Cloud_Cover
0 0 0 0 0 0 0 0 0 0 0 0 0 0 0 0 0 0 0 0 0 0 0 0 0 0 1 0 0 0 0 0 0 0 0 0 0 0 0 0 0 6 5 16 5 30 27
0 0 1 0 0 0 2 41 0 0 0 0 0 0 0 0 0 0 0 0 0 0 0 0 2 9 20 0 0 0 0 0 0 0 0 0 0 0 0 1 5 61 6 5 5 77 57
0 0 0 0 0 0 0 19 21 2 0 0 0 0 0 0 0 0 0 0 0 0 0 11 22 16 0 0 0 0 0 0 0 0 0 0 0 0 0 1 17 5 5 5 5 56 5
100 70 6 0 0 0 0 0 7 0 0 0 0 0 0 0 0 0 0 0 0 0 0 3 16 6 0 0 0 0 0 0 0 0 0 0 0 0 0 0 1 1 4 5 4 3 5
76 27 3 0 0 1 2 0 0 0 0 0 0 0 0 0 0 0 0 0 0 0 2 4 23 24 0 0 0 0 0 0 0 0 0 0 0 0 0 0 0 0 0 0 2 0 0
6 5 72 20 4 0 0 0 0 2 4 1 4 0 0 0 0 0 0 0 0 46 43 16 0 3 0 0 0 0 0 0 0 0 0 0 0 0 0 0 0 0 0 5 4 0 0
4 5 19 5 5 5 5 5 5 4 5 4 2 0 0 0 0 0 0 0 0 0 0 0 0 0 0 0 0 0 0 0 0 0 0 0 0 0 0 0 0 0 0 0 0 2 0
39 44 9 15 61 21 5 5 4 3 0 3 0 0 0 0 0 0 0 0 0 0 0 0 0 0 0 0 0 0 0 0 0 0 0 0 0 0 0 0 0 0 0 0 3 6 0
60 43 10 8 5 5 5 5 1 0 0 0 0 0 0 2 0 0 0 0 0 0 0 0 0 0 0 0 0 0 0 0 0 0 0 0 0 0 0 0 0 0 0 0 0 5 3
0 0 0 0 0 0 0 0 0 0 0 0 0 0 0 13 0 0 0 0 0 0 0 0 0 0 0 0 0 0 0 0 0 0 0 0 0 0 0 0 0 0 0 0 3 24 41
0 0 0 0 0 0 0 0 0 0 0 0 0 0 0 2 17 18 0 0 0 0 0 0 0 0 0 0 0 0 0 0 0 0 0 0 0 0 0 0 0 0 0 0 0 5 5
0 0 0 0 0 0 0 0 0 0 0 0 0 0 0 21 14 1 0 0 0 0 0 0 0 0 0 0 0 0 0 0 0 0 0 0 0 0 0 0 0 0 0 0 0 5 2
0 0 0 0 0 0 0 0 0 0 0 0 0 0 0 0 2 0 0 0 0 0 0 0 0 0 0 0 0 0 0 0 0 0 0 0 0 0 0 0 0 0 0 0 0 0 8
0 0 0 0 0 0 0 0 0 0 0 0 0 0 0 0 0 0 0 0 0 0 0 0 0 5 5 0 0 0 0 0 0 0 0 0 0 0 0 0 0 0 0 0 0 0 0
0 0 0 0 0 0 0 0 0 0 0 0 0 0 0 0 0 0 0 0 0 0 0 0 0 0 2 4 0 0 0 0 0 0 0 0 0 0 0 0 0 0 0 0 0 0 0
11 15 0 0 0 0 0 0 0 0 0 0 23 98 3 0 0 0 0 0 0 0 0 0 0 0 0 0 0 0 0 0 0 0 0 0 0 0 0 0 0 0 0 0 0 0 0
0 0 0 0 0 0 0 0 0 0 0 0 0 4 0 0 0 0 0 0 0 0 0 0 0 0 0 0 0 0 0 0 0 0 0 0 0 0 0 0 0 0 0 0 0 0 0
0 0 0 0 0 0 0 0 5 3 0 5 11 6 0 0 0 1 80 56 5 1 0 0 0 0 0 0 0 0 0 0 0 0 0 0 4 4 0 0 0 0 0 0 0 0 0
15 0 0 0 0 0 0 0 5 5 5 16 59 64 0 0 20 52 92 100 99 96 3 2 1 0 0 0 0 0 0 0 0 0 0 0 0 5 0 0 0 1 0 3 7 0 4
0 2 0 2 1 3 1 2 5 1 5 5 62 62 1 52 46 93 31 84 100 97 47 36 30 5 3 1 1 0 0 0 0 0 0 0 0 5 4 0 0 3 5 4 2 5 34
27 0 1 4 5 4 0 2 2 3 5 5 18 9 72 46 90 83 47 53 93 100 100 98 100 94 6 5 1 5 0 0 0 0 0 0 0 2 5 0 7 6 5 5 5 95 14
0 0 0 0 2 4 5 5 5 2 5 56 89 53 79 94 100 98 74 5 100 100 99 100 100 86 84 14 5 5 4 5 0 0 0 0 0 0 5 8 2 4 5 84 100 100 53
0 0 0 0 0 2 3 0 5 5 6 27 88 41 100 100 100 78 100 32 13 100 100 95 100 27 100 21 4 4 0 5 3 4 1 0 0 0 0 0 1 0 82 98 58 53 100
12 13 0 0 2 2 5 3 4 55 31 75 73 100 100 91 100 100 99 18 5 37 95 100 100 98 5 5 5 1 0 0 5 46 61 5 0 0 0 0 0 81 17 0 0 1 5
0 2 0 0 0 0 0 5 5 5 8 26 8 85 100 100 100 96 66 41 20 7 5 10 99 97 65 5 2 0 0 0 0 3 100 92 97 5 0 0 0 0 0 0 0 2 0
0 0 0 0 0 0 5 5 4 5 6 5 13 17 94 100 98 90 34 50 95 81 5 35 4 1 4 5 0 5 5 2 0 0 75 100 100 98 15 1 0 0 0 0 0 0 4
0 0 4 5 4 4 5 28 16 5 5 5 5 6 93 100 88 89 91 49 100 96 64 30 4 3 5 58 63 1 5 4 0 0 0 98 100 100 16 56 1 0 0 0 0 0 1
44 100 100 100 79 81 97 29 93 100 100 97 78 24 35 76 25 66 100 99 82 80 100 25 7 47 8 99 99 9 14 5 2 0 0 73 95 100 64 52 47 0 5 81 49 13 0
100 97 84 100 100 100 100 100 89 86 100 100 100 100 100 100 57 6 5 5 5 9 98 100 37 12 5 17 77 100 99 96 5 4 0 5 63 90 81 63 5 56 69 94 92 15 18

GFSGBSN_prec_cloud_021.txt.gz
Cloud_Cover
9 0 0 0 0 0 0 0 34 4 0 0 0 0 0 0 0 0 0 0 0 2 15 17 14 63 0 0 0 0 0 0 0 0 0 0 0 0 0 0 0 5 5 4 0 0 0
0 15 81 17 4 0 0 0 22 0 0 0 0 0 0 0 0 0 0 0 0 0 1 29 75 87 3 0 0 0 0 0 0 0 0 0 0 0 0 0 0 4 5 0 3 2 5
1 100 100 100 16 72 29 14 0 0 0 0 0 0 0 0 0 0 0 0 0 1 2 36 100 53 0 0 0 0 0 0 0 0 0 0 0 0 0 0 0 0 4 2 3 5 5
1 33 79 95 71 23 0 0 0 0 0 0 0 0 0 0 0 0 0 0 12 43 26 79 100 26 0 0 0 0 0 0 0 0 0 0 0 0 0 0 0 0 0 0 3 73 24
6 91 79 27 84 5 29 4 0 0 0 0 0 0 0 0 0 0 0 0 100 21 62 97 51 12 0 0 0 0 0 0 0 0 0 0 0 0 0 0 0 0 0 0 4 6 92
46 81 5 54 51 25 1 0 0 0 0 0 0 0 0 0 0 0 0 0 98 59 78 92 7 1 0 0 0 0 0 0 0 0 0 0 0 0 0 0 0 0 0 0 0 5 99
24 7 93 69 17 2 1 5 5 5 5 2 0 0 0 0 0 0 0 0 0 0 0 0 0 0 0 0 0 0 0 0 0 0 0 0 0 0 0 0 0 0 0 0 5 18 26
25 79 4 2 0 0 3 5 4 5 0 0 0 0 0 0 0 0 0 0 0 0 0 0 0 0 0 0 0 0 0 0 0 0 0 0 0 0 0 0 0 0 0 0 3 0 0
53 1 0 0 14 0 0 0 0 1 0 0 0 0 0 0 0 0 0 0 0 0 0 0 0 0 0 0 0 0 0 0 0 0 0 0 0 0 0 0 0 0 0 0 0 0 0
99 18 0 0 0 0 0 0 0 0 0 0 0 0 0 0 0 0 0 0 0 0 0 0 0 0 0 0 0 0 0 0 0 0 0 0 0 0 0 0 0 0 0 0 0 0 0
100 1 93 29 0 0 0 0 0 0 0 0 0 0 0 0 0 0 0 0 0 0 0 0 0 0 0 0 0 0 0 0 0 0 0 0 0 0 0 0 0 0 0 0 0 0 1
100 100 89 5 1 0 0 0 0 0 0 0 0 0 0 0 2 0 0 0 0 0 0 0 0 0 0 0 0 0 0 0 0 0 0 0 0 0 0 0 0 0 0 0 0 0 1
100 100 17 0 0 0 0 0 0 0 0 0 0 0 0 0 0 0 0 0 0 0 0 0 0 0 0 0 0 0 0 0 0 0 0 0 0 0 0 0 0 0 0 0 0 0 0
100 66 0 0 0 0 0 0 0 0 0 0 0 0 0 0 0 0 0 0 0 0 0 0 0 0 0 0 0 0 0 0 0 0 0 0 0 0 0 0 0 0 0 0 0 0 0
100 0 0 0 0 0 0 0 0 0 0 0 0 0 0 0 0 0 0 0 0 0 0 0 0 0 0 0 0 0 0 0 0 0 0 0 0 0 0 0 0 0 0 0 0 0 0
0 0 0 0 0 0 0 0 0 0 0 0 0 0 0 0 0 0 0 0 0 0 0 0 0 0 0 0 0 0 0 0 0 0 0 0 0 0 0 0 0 0 0 0 0 0 0
0 1 0 0 0 0 0 0 0 0 0 0 0 0 0 0 0 0 1 1 2 4 0 0 0 0 0 0 0 0 0 0 0 0 0 0 0 0 0 0 0 0 0 0 0 0 0
0 0 0 0 0 0 0 0 0 0 0 10 68 0 0 0 0 0 3 5 0 2 4 1 0 0 0 0 0 0 0 0 0 0 0 0 0 0 0 0 0 0 0 0 0 0 0
0 0 0 0 0 0 1 0 0 0 0 66 100 18 0 2 33 42 16 4 3 58 38 19 4 4 0 0 0 0 0 0 0 0 0 0 0 0 0 0 0 0 0 0 0 0 0
0 0 18 0 0 0 1 0 0 0 0 0 35 4 3 2 5 96 91 5 24 5 97 100 96 33 4 5 0 0 0 0 0 0 0 0 0 0 0 0 0 0 0 0 0 0 1
2 23 2 0 0 0 4 2 0 5 5 4 5 12 57 12 7 8 29 5 69 72 41 81 100 100 90 10 4 0 2 0 0 0 0 0 0 0 0 0 0 0 0 0 0 1 10
30 100 28 7 0 1 5 5 100 32 26 7 18 100 100 100 79 45 7 66 84 78 79 69 100 100 100 100 97 42 3 5 1 0 0 0 0 0 0 0 0 0 0 0 0 0 70
2 20 51 1 96 9 24 41 100 100 95 70 88 49 100 100 23 97 65 79 81 99 28 66 100 100 100 100 100 90 7 4 2 4 1 0 0 0 0 0 0 0 0 0 0 3 19
0 0 0 62 4 100 85 100 99 85 98 100 94 98 99 55 84 100 100 91 100 100 92 23 11 98 100 90 100 99 82 3 0 3 23 1 1 0 0 0 0 0 0 0 0 5 6
0 0 0 2 6 20 100 100 100 100 100 100 100 94 100 99 93 64 100 100 100 100 98 46 10 60 81 100 79 15 19 3 0 0 9 89 6 0 0 0 0 0 0 0 0 5 41
0 0 1 4 74 99 96 100 100 100 100 100 100 87 99 100 83 44 90 100 100 100 100 80 49 28 100 68 65 5 5 0 0 0 0 16 99 19 0 0 0 0 0 0 0 4 69
0 0 0 10 98 57 100 99 100 100 100 100 100 100 97 100 96 78 99 100 85 99 100 99 78 34 49 100 47 80 31 3 1 0 0 0 6 4 5 1 0 0 0 0 0 5 5
0 0 0 52 49 6 30 100 100 100 100 100 100 100 100 100 98 100 100 100 96 100 91 97 51 57 99 68 99 97 85 17 4 0 0 2 6 16 4 4 0 0 0 0 2 4 11
0 0 0 3 44 72 98 100 100 100 100 100 100 100 100 100 100 100 100 100 100 98 100 100 66 41 96 90 73 100 80 44 11 44 23 4 2 63 1 0 0 0 0 0 0 0 0

GFSGBSN_prec_cloud_024.txt.gz
Cloud_Cover
100 100 96 65 96 39 6 0 0 0 0 0 0 0 0 0 0 0 0 0 0 0 4 17 24 4 0 0 0 0 0 0 0 0 0 0 0 0 0 0 0 6 5 5 0 0 2
99 97 95 14 7 5 0 0 0 0 0 0 0 0 0 0 0 0 0 0 0 0 7 40 55 52 0 0 0 0 0 0 0 0 0 0 0 0 0 0 0 5 5 5 2 0 5
7 92 0 10 0 0 0 0 0 0 0 0 0 0 0 0 0 0 0 0 0 0 46 100 92 6 0 0 0 0 0 0 0 0 0 0 0 0 0 0 0 0 0 5 1 0 0
62 0 20 19 24 3 0 0 0 0 0 0 0 0 0 0 0 0 0 0 0 2 12 100 100 0 0 0 0 0 0 0 0 0 0 0 0 0 0 0 0 0 0 0 0 5 3
62 75 100 16 5 0 0 0 0 0 0 0 0 0 0 0 0 0 0 0 98 17 100 91 10 0 0 0 0 0 0 0 0 0 0 0 0 0 0 0 0 0 0 0 3 63 57
98 30 0 5 5 5 0 0 0 0 0 0 0 0 0 0 0 0 0 0 67 32 5 18 0 0 0 0 0 0 0 0 0 0 0 0 0 0 0 0 0 0 0 0 0 5 70
2 18 3 3 4 0 0 0 0 0 0 0 0 0 0 0 0 0 0 0 0 0 0 0 0 0 0 0 0 0 0 0 0 0 0 0 0 0 0 0 0 0 0 0 0 1 11
25 0 0 0 0 0 0 0 0 0 0 0 0 0 0 0 0 1 0 0 0 0 0 0 0 0 0 0 0 0 0 0 0 0 0 0 0 0 0 0 0 0 0 0 0 5 4
100 57 58 0 0 0 0 0 0 0 0 0 0 0 0 0 0 0 0 0 0 0 0 0 0 0 0 0 0 0 0 0 0 0 0 0 0 0 0 0 0 0 0 0 0 3 1
100 100 84 0 0 0 0 0 0 0 0 0 0 0 0 0 0 0 0 0 0 0 0 0 0 0 0 0 0 0 0 0 0 0 0 0 0 0 0 0 0 0 0 0 0 2 3
100 85 48 0 0 0 0 0 0 0 0 0 0 0 0 0 0 0 0 0 0 0 0 0 0 0 0 0 0 0 0 0 0 0 0 0 0 0 0 0 0 0 0 0 0 0 2
95 0 11 0 0 0 0 0 0 0 0 0 0 0 0 0 0 0 0 0 0 0 0 0 0 0 0 0 0 0 0 0 0 0 0 0 0 0 0 0 0 0 0 0 0 0 0
0 0 0 0 0 0 0 0 0 0 0 0 0 0 8 0 0 0 0 0 0 0 0 0 0 0 0 0 0 0 0 0 0 0 0 0 0 0 0 0 0 0 0 0 0 0 0
0 0 0 0 0 0 0 0 0 0 0 0 0 15 0 0 0 0 0 0 0 0 0 0 0 0 0 0 0 0 0 0 0 0 0 0 0 0 0 0 0 0 0 0 0 0 0
0 7 0 0 0 0 0 0 0 0 0 0 0 0 0 0 0 0 0 0 0 13 45 1 0 0 0 0 0 0 0 0 0 0 0 0 0 0 0 0 0 0 0 0 0 0 0
2 0 0 0 0 0 0 0 0 0 0 0 0 0 0 0 0 0 0 0 10 81 35 0 0 0 0 0 0 0 0 0 0 0 0 0 0 0 0 0 0 0 0 0 0 0 0
0 0 0 0 0 0 0 0 0 0 0 0 0 0 0 0 0 2 12 25 5 9 17 0 100 82 89 43 0 0 0 0 0 0 0 0 0 0 0 0 0 0 0 0 0 0 0
0 0 0 0 0 0 0 0 0 0 0 0 0 0 0 0 10 5 5 5 2 52 100 67 40 92 95 100 2 0 0 0 0 0 0 0 0 0 0 0 0 0 0 0 0 0 0
0 0 0 0 0 0 0 0 0 2 1 1 4 3 3 2 11 23 77 61 63 98 46 78 54 90 93 100 95 88 96 0 0 0 0 0 0 0 0 0 0 0 0 0 16 4 0
0 1 67 0 1 0 0 0 2 4 78 57 6 5 4 70 70 100 93 90 82 100 87 96 90 26 40 35 100 100 88 0 0 0 0 0 0 0 0 0 0 0 0 0 0 5 0
0 0 0 0 0 0 0 2 5 8 100 97 77 75 72 13 30 83 100 95 100 100 100 99 87 100 100 33 100 100 100 61 0 0 0 0 0 0 0 0 0 0 0 0 0 45 4
0 0 0 1 0 0 0 3 26 70 86 100 100 66 88 28 99 99 100 100 100 100 100 88 100 100 100 100 94 100 97 95 100 4 0 0 0 0 0 0 0 0 0 0 1 100 24
4 0 0 0 0 0 17 4 5 100 100 100 100 100 97 44 72 88 99 93 96 100 78 100 99 99 100 100 100 95 57 100 22 4 0 0 0 0 0 0 0 0 0 0 2 96 31
5 5 0 0 0 4 5 1 92 93 100 100 100 100 100 85 100 100 96 100 100 100 100 79 99 100 100 100 99 100 28 20 100 80 23 1 2 0 0 0 0 0 0 0 0 86 60
58 4 0 0 0 0 0 39 100 100 100 100 100 100 100 100 100 88 100 100 100 94 84 90 90 92 60 100 88 100 62 12 5 100 98 30 1 0 0 0 0 0 0 0 0 98 100
32 5 0 0 0 0 5 100 100 100 100 100 100 100 100 100 100 100 100 100 99 100 82 99 92 81 78 76 94 87 100 100 41 32 84 100 63 2 4 0 0 0 0 0 0 68 100
36 4 0 0 0 0 63 100 100 100 100 100 100 100 100 100 97 90 100 100 91 91 100 100 99 91 82 100 100 100 100 59 75 84 62 23 98 41 5 5 0 0 0 0 0 7 16
58 2 0 0 0 6 90 100 100 100 100 100 100 100 100 100 100 99 100 100 91 100 100 99 52 74 79 97 95 68 41 100 61 66 100 92 40 10 5 5 4 0 0 0 1 45 1
67 1 0 0 0 67 100 100 100 100 100 100 100 100 100 100 94 56 100 100 100 100 100 100 83 99 74 84 57 28 93 80 56 99 67 14 84 100 63 0 0 0 0 0 0 0 0

GFSGBSN_prec_cloud_027.txt.gz
Cloud_Cover
33 0 0 0 0 0 0 0 0 0 0 0 0 0 0 0 0 0 0 0 0 0 0 0 12 1 0 0 0 0 0 0 0 0 0 0 0 0 0 1 5 0 65 43 30 5 5
0 0 0 0 0 0 0 0 0 0 0 0 0 0 0 0 0 0 0 0 0 0 0 32 99 12 0 0 0 0 0 0 0 0 0 0 0 0 0 0 3 7 5 55 4 5 5
0 52 0 0 0 0 0 0 0 0 0 0 0 0 0 0 0 0 0 0 0 0 21 72 100 0 0 0 0 0 0 0 0 0 0 0 0 0 0 0 0 8 37 6 5 0 3
6 0 0 0 0 0 0 0 0 0 0 0 0 0 0 0 0 0 0 0 0 0 0 3 90 0 0 0 0 0 0 0 0 0 0 0 0 0 0 0 1 0 5 20 5 2 5
7 6 0 0 0 0 0 0 0 0 0 0 0 0 0 0 0 0 0 0 2 0 6 14 4 0 0 0 0 0 0 0 0 0 0 0 0 0 0 0 0 0 0 2 76 6 12
1 1 0 0 0 0 0 0 0 0 0 0 0 0 0 0 0 0 0 0 0 10 2 0 0 0 0 0 0 0 0 0 0 0 0 0 0 0 0 0 0 0 0 3 4 83 68
0 8 0 0 0 0 0 0 0 0 0 0 0 0 0 0 0 0 0 0 0 0 0 0 0 0 0 0 0 0 0 0 0 0 0 0 0 0 0 0 0 0 0 0 11 69 24
74 37 0 0 0 0 0 0 0 0 0 0 0 0 0 0 0 2 7 0 0 0 0 0 0 0 0 0 0 0 0 0 0 0 0 0 0 0 0 0 0 0 0 0 4 7 62
0 0 0 0 0 0 0 0 0 0 0 0 0 0 0 0 4 1 0 0 0 0 0 0 0 0 0 0 0 0 0 0 0 0 0 0 0 0 0 0 0 0 0 0 4 5 5
0 0 0 0 0 0 0 0 0 0 0 0 0 0 0 0 0 0 0 0 0 0 0 0 0 0 0 0 0 0 0 0 0 0 0 0 0 0 0 0 0 0 0 0 0 5 5
0 0 0 0 0 0 0 0 0 0 0 0 0 0 0 0 0 0 0 0 0 0 0 0 0 0 0 0 0 0 0 0 0 0 0 0 0 0 0 0 0 0 0 0 0 0 5
4 8 1 0 0 0 0 0 0 0 0 0 0 0 0 0 0 0 0 0 0 0 0 0 0 0 0 0 0 0 0 0 0 0 0 0 0 0 0 0 0 0 0 0 0 0 0
0 8 1 0 0 0 0 0 0 0 0 0 0 0 5 0 0 0 0 0 0 0 0 0 0 0 0 0 0 0 0 0 0 0 0 0 0 0 0 0 0 0 0 0 0 0 0
87 5 0 0 0 0 0 0 0 0 0 0 0 3 0 0 0 0 0 0 0 0 4 0 0 0 0 0 0 0 0 0 0 0 0 0 0 0 0 0 0 0 0 0 0 0 0
2 0 0 0 0 0 0 0 0 0 0 0 5 0 0 0 0 0 0 3 28 26 31 43 0 0 0 0 0 0 0 0 0 0 0 0 0 0 0 0 0 0 0 0 0 0 0
0 1 0 0 0 0 0 0 0 0 0 0 0 0 1 0 0 0 61 100 98 100 93 61 12 98 92 34 1 0 0 0 0 0 0 0 1 0 0 0 0 0 0 0 0 0 0
0 0 59 4 0 0 0 0 0 0 0 0 0 0 0 0 1 87 100 93 100 46 75 5 65 84 100 95 96 82 3 1 0 0 0 0 0 0 0 0 0 0 0 0 0 0 0
0 42 50 0 0 0 0 0 0 0 1 93 97 5 5 2 68 100 100 33 11 15 74 99 48 50 100 100 97 100 99 59 0 0 0 0 0 0 0 0 0 0 0 0 0 0 0
1 3 0 0 1 0 0 0 0 1 4 63 95 9 40 5 94 100 99 100 100 100 99 86 100 86 99 100 100 100 100 33 0 0 0 34 4 2 1 0 0 0 0 0 0 0 0
68 89 45 4 3 0 0 0 5 5 87 17 36 83 100 76 100 100 78 97 100 100 100 100 34 47 13 100 100 100 100 100 59 0 0 0 0 0 0 1 0 0 0 0 0 0 0
2 100 2 91 0 0 0 2 34 46 76 95 94 100 100 100 99 88 100 100 100 100 100 100 61 57 86 61 100 100 100 99 95 0 0 0 0 0 0 100 20 0 0 0 0 0 3
100 100 28 95 0 0 0 5 5 65 41 97 100 100 100 100 100 100 100 100 100 100 100 100 98 100 100 66 71 100 100 100 100 96 0 0 0 0 0 76 14 0 0 0 0 0 5
100 75 44 44 5 0 0 6 0 40 100 100 100 100 100 100 100 100 100 100 100 86 51 100 100 100 100 100 100 95 100 97 99 91 70 5 15 72 10 7 61 0 0 0 0 0 13
94 64 100 14 2 0 0 2 5 100 100 100 100 100 100 100 100 100 100 100 97 100 95 34 100 100 100 95 34 5 8 32 98 73 82 48 51 96 79 27 61 0 0 0 0 0 2
70 96 100 5 0 0 0 0 84 97 100 100 100 100 100 100 100 91 100 100 100 99 99 100 100 100 99 100 62 100 36 5 73 100 93 83 82 84 50 48 17 0 0 6 0 0 0
100 100 94 1 0 0 0 4 96 100 100 100 100 100 100 100 100 100 100 100 100 97 74 100 100 100 100 100 100 62 100 29 3 97 100 98 58 87 86 98 100 96 93 1 2 0 0
100 100 16 0 0 4 40 100 100 97 100 100 100 100 100 100 100 99 100 100 99 91 90 98 100 100 100 100 100 100 100 92 96 76 100 100 96 89 98 100 99 100 87 56 8 36 34
100 44 0 0 12 94 100 100 100 98 100 100 100 100 100 100 100 100 100 100 100 100 99 98 68 100 100 100 100 100 99 100 93 100 100 95 100 100 95 100 90 100 100 100 66 7 12
100 5 0 7 22 98 100 100 100 100 100 100 100 100 100 100 100 100 100 100 100 100 100 100 66 94 100 100 71 98 93 92 96 100 100 77 100 100 100 98 96 100 92 81 33 82 100

GFSGBSN_prec_cloud_030.txt.gz
Cloud_Cover
0 0 0 0 0 0 0 0 0 0 0 0 0 0 0 0 0 0 0 0 0 0 0 6 11 26 1 0 0 0 0 0 0 0 0 0 0 0 0 3 16 62 73 100 88 100 22
0 0 0 0 0 0 0 0 0 0 0 0 0 0 0 0 0 0 0 0 0 0 11 86 97 70 0 0 0 0 0 0 0 0 0 0 0 0 0 0 12 59 84 100 100 100 8
0 0 0 0 0 0 0 0 0 0 0 0 0 0 0 0 0 0 0 0 0 0 2 90 100 26 0 0 0 0 0 0 0 0 0 0 0 0 0 0 1 96 100 75 70 56 52
0 0 0 0 0 0 0 0 0 0 0 0 0 0 0 0 0 0 0 0 0 0 0 11 100 1 0 0 0 0 0 0 0 0 0 0 0 0 0 0 4 17 59 67 23 20 5
0 0 0 0 0 0 0 0 0 0 0 0 0 0 0 0 0 0 0 0 0 0 0 59 25 0 0 0 0 0 0 0 0 0 0 0 0 0 0 0 3 4 5 1 54 19 8
0 0 0 0 0 0 0 0 0 0 0 0 0 0 0 0 0 0 0 0 0 30 3 0 0 0 0 0 0 0 0 0 0 0 0 0 0 0 0 0 0 3 5 4 5 99 5
0 0 0 0 0 0 0 0 0 0 0 0 0 0 0 0 0 0 0 0 0 0 0 0 0 0 0 0 0 0 0 0 0 0 0 0 0 0 0 0 0 4 5 0 5 2 93
3 0 0 0 0 0 0 0 0 0 0 0 0 0 0 0 0 0 0 0 0 0 0 0 0 0 0 0 0 0 0 0 0 0 0 0 0 0 0 0 0 0 2 3 4 94 59
0 0 0 0 0 0 0 0 0 0 0 0 0 0 0 0 0 1 0 0 0 0 0 0 0 0 0 0 0 0 0 0 0 0 0 0 0 0 0 0 0 0 0 0 5 11 100
0 0 0 0 0 0 0 0 0 0 0 0 0 0 0 0 0 0 0 0 0 0 0 0 0 0 0 0 0 0 0 0 0 0 0 0 0 0 0 0 0 0 0 0 5 74 5
0 0 0 0 0 0 0 0 0 0 0 0 0 0 0 0 0 0 0 0 0 0 0 0 0 0 0 0 0 0 0 0 0 0 0 0 0 0 0 0 0 0 0 0 0 5 84
0 0 0 0 0 0 0 0 0 0 0 0 0 0 0 0 0 0 0 0 0 0 0 0 0 0 0 0 0 0 0 0 0 0 0 0 0 0 0 0 0 0 0 0 0 0 2
0 0 0 0 0 0 0 0 0 0 0 0 0 0 0 0 0 0 0 0 0 0 0 9 0 0 0 0 0 0 0 0 0 0 0 0 0 0 0 0 0 0 0 0 0 0 0
0 0 0 0 0 0 0 0 0 0 0 0 0 0 0 0 0 0 0 0 2 11 98 0 2 0 0 0 0 0 0 0 0 0 0 0 0 0 0 0 0 0 0 0 0 0 0
0 0 0 0 0 0 0 0 0 0 0 0 0 0 0 0 0 0 1 5 7 5 49 24 80 100 86 100 2 56 0 0 0 0 0 5 0 0 0 0 0 0 0 0 0 0 0
0 0 0 0 0 0 0 0 0 0 0 0 0 0 2 0 0 1 33 30 19 100 20 100 74 100 100 100 17 31 5 2 0 0 0 0 1 0 0 0 0 0 0 0 0 0 0
0 1 0 0 0 1 1 3 0 0 0 0 0 4 13 4 16 74 98 94 94 93 80 100 95 100 100 100 93 83 5 64 96 94 1 0 0 0 0 0 0 0 0 0 0 0 0
4 2 0 0 3 4 2 0 0 0 0 1 2 76 50 5 95 85 100 93 58 14 30 97 100 100 100 100 100 100 100 100 97 21 24 0 0 0 32 0 0 0 0 0 0 0 0
1 5 2 1 1 2 6 0 0 0 3 18 39 35 99 9 88 52 35 88 45 60 70 38 45 100 100 100 100 100 100 94 14 23 100 95 0 0 5 91 4 0 0 0 0 0 0
5 2 4 4 1 82 0 0 0 0 47 78 100 84 84 100 94 98 100 99 83 84 78 97 97 100 100 100 100 100 100 100 54 78 7 40 0 0 0 0 8 0 0 0 0 0 0
5 33 5 0 98 6 0 0 0 28 5 10 60 100 100 100 94 100 100 75 93 56 100 100 22 100 100 100 100 100 100 100 100 81 5 35 0 0 5 4 100 0 0 0 0 0 0
5 52 38 6 100 1 0 0 0 20 4 93 54 100 100 100 99 100 100 96 99 52 99 94 100 96 100 100 100 100 100 100 100 15 56 5 0 2 78 18 100 100 4 0 0 0 0
100 99 12 66 54 0 0 0 5 5 9 100 88 100 100 100 84 100 100 100 100 87 62 100 100 98 76 100 100 100 100 100 100 100 76 59 95 25 3 13 66 85 91 37 0 0 0
100 45 89 99 25 0 0 0 23 25 38 100 95 100 100 100 90 100 98 94 98 100 97 93 23 96 25 77 100 100 100 100 100 100 100 100 81 34 5 100 100 38 100 76 29 0 0
92 92 67 100 5 0 3 98 86 100 100 100 100 100 100 100 100 100 100 90 100 96 99 97 96 53 48 93 100 100 100 100 100 100 100 100 82 73 16 100 47 98 10 41 31 47 41
96 100 68 57 0 0 16 100 100 100 100 100 100 100 100 100 99 100 100 100 100 100 87 97 100 82 34 90 96 100 100 100 100 100 100 99 100 47 5 99 100 99 92 100 100 96 100
69 100 86 15 0 51 100 100 100 100 97 100 100 100 100 100 100 100 100 100 100 100 100 98 95 65 100 71 49 97 100 100 100 100 92 100 100 98 74 10 100 99 100 100 100 100 5
98 97 16 4 88 100 100 100 100 100 100 92 100 100 100 100 100 100 100 100 100 100 100 86 69 89 99 95 60 82 100 100 90 100 100 100 100 99 100 67 100 100 100 100 100 7 5
100 6 4 97 100 100 100 100 100 100 100 100 100 100 100 100 100 100 100 100 100 100 100 100 100 68 100 97 98 64 99 77 100 100 100 47 100 100 100 100 100 100 100 100 15 69 48

GFSGBSN_prec_cloud_033.txt.gz
Cloud_Cover
0 0 0 0 0 0 0 0 0 0 0 0 0 0 0 0 0 0 0 0 0 0 0 26 100 74 15 0 0 0 0 0 0 0 0 0 0 0 0 0 0 88 8 88 87 49 22
0 0 0 0 0 0 0 0 0 0 0 0 0 0 0 0 0 0 0 0 0 0 0 59 100 98 9 0 0 0 0 0 0 0 0 0 0 0 0 0 0 1 5 38 91 72 87
0 0 0 0 0 0 0 0 0 0 0 0 0 0 0 0 0 0 0 0 0 0 0 19 100 65 0 0 0 0 0 0 0 0 0 0 0 0 0 0 1 5 100 100 89 100 100
0 0 0 0 0 0 0 0 0 0 0 0 0 0 0 0 0 0 0 0 0 0 0 26 99 94 19 0 0 0 0 0 0 0 0 0 0 0 0 0 2 5 90 98 12 12 8
0 0 0 0 0 0 0 0 0 0 0 0 0 0 0 0 0 0 0 0 0 0 0 29 32 30 0 0 0 0 0 0 0 0 0 0 0 0 0 0 0 4 5 43 75 18 90
0 0 0 0 0 0 0 0 0 0 0 0 0 0 0 0 0 0 0 0 0 0 10 0 0 0 0 0 0 0 0 0 0 0 0 0 0 0 0 0 0 0 5 4 2 6 70
0 0 0 0 0 0 0 0 0 0 0 0 0 0 0 0 0 0 0 0 0 0 0 0 0 0 0 0 0 0 0 0 0 0 0 0 0 0 0 0 0 0 0 0 0 2 81
0 0 0 0 0 0 0 0 0 0 0 0 0 0 0 0 0 0 0 0 0 0 0 0 0 0 0 0 0 0 0 0 0 0 0 0 0 0 0 0 0 0 0 0 2 0 67
0 0 0 0 0 0 0 0 0 0 0 0 0 0 0 0 0 0 0 0 0 0 0 0 0 0 0 0 0 0 0 0 0 0 0 0 0 0 0 0 0 0 0 0 0 0 10
0 0 0 0 0 0 0 0 0 0 0 0 0 0 0 0 0 0 0 0 0 0 0 0 0 0 0 0 0 0 0 0 0 0 0 0 0 0 0 0 0 0 0 0 0 2 39
0 0 0 0 0 0 0 0 0 0 0 0 0 0 0 0 0 0 0 0 0 0 0 0 0 0 0 0 0 0 0 0 0 0 0 0 0 0 0 0 0 0 0 0 0 0 5
0 0 0 0 0 0 0 0 0 0 0 0 0 0 0 0 0 0 0 0 0 0 0 0 0 0 0 0 0 0 0 0 0 0 0 0 0 0 0 0 0 0 0 0 0 0 2
0 0 0 0 0 0 0 0 0 0 0 0 0 0 0 0 0 0 0 0 0 0 0 0 0 0 0 0 0 0 0 0 0 0 0 0 0 0 0 0 0 0 0 0 0 0 0
0 0 0 0 0 0 0 0 0 0 0 0 0 0 0 0 0 0 0 0 0 0 0 0 0 100 99 22 1 0 0 0 0 0 0 0 0 0 0 0 0 0 0 0 0 0 0
0 0 0 0 0 0 0 0 0 0 0 0 0 0 0 0 0 0 0 0 0 0 0 0 0 65 100 100 56 5 0 0 0 0 0 0 0 0 0 0 0 0 0 0 0 0 0
1 5 1 0 0 0 0 0 0 0 0 0 0 0 0 0 3 1 4 0 33 74 58 1 10 69 100 100 100 90 16 2 11 100 88 0 6 0 0 0 0 0 0 0 0 0 0
4 4 0 3 0 0 0 0 0 0 0 0 0 0 2 5 5 4 8 94 5 5 1 0 73 94 100 100 100 100 99 100 84 100 83 0 0 0 75 1 0 0 0 0 0 0 0
0 7 5 5 1 16 0 0 0 0 0 0 0 4 2 5 57 29 5 4 6 5 0 2 42 100 100 100 100 100 100 100 100 100 5 5 4 0 0 0 0 0 0 0 0 0 0
5 67 34 5 99 5 5 5 0 0 1 28 13 42 97 5 94 11 5 37 32 3 48 3 81 12 93 100 100 100 100 100 100 100 54 77 3 1 0 2 16 1 0 0 0 0 0
50 36 98 80 99 5 5 5 0 0 0 2 38 24 89 15 100 79 9 36 17 4 2 18 1 18 15 100 100 100 100 100 100 100 100 62 0 0 0 0 0 2 2 0 0 0 0
88 100 97 100 22 18 5 3 0 0 0 0 100 98 98 14 100 100 98 61 83 22 97 92 63 42 42 100 100 100 100 100 100 100 100 58 0 0 0 0 2 77 44 1 0 0 0
100 100 100 100 33 100 22 2 0 0 0 0 78 98 100 100 100 95 100 42 100 100 11 2 95 24 6 100 100 100 100 100 100 100 100 48 5 0 0 1 100 67 97 20 0 0 5
100 100 100 100 100 100 1 0 0 56 26 84 11 100 100 100 99 99 100 100 100 100 100 51 98 34 38 98 100 100 100 100 100 100 100 88 95 1 0 85 100 83 28 67 2 0 0
100 100 100 100 100 40 4 22 99 100 100 85 100 100 100 100 100 100 100 100 100 100 100 30 49 78 31 60 100 100 100 100 100 100 100 81 83 4 22 100 49 1 97 82 100 0 0
100 100 100 100 72 32 97 100 100 100 100 100 50 100 100 100 100 100 100 100 100 100 100 10 65 75 19 3 100 100 100 100 100 100 100 96 49 11 100 100 2 74 100 100 100 100 6
100 100 100 40 6 100 100 100 100 100 100 100 100 100 100 100 100 100 100 100 100 100 100 80 12 33 40 62 96 100 100 100 100 100 100 100 62 46 94 100 83 100 100 86 100 100 86
100 100 71 20 100 100 100 100 100 100 100 100 100 100 100 100 100 100 100 100 100 100 100 100 30 99 100 73 52 100 100 100 100 100 100 100 97 93 98 100 86 100 100 100 100 99 83
100 10 10 94 100 100 100 100 100 100 100 100 100 100 100 100 100 100 100 100 100 100 100 100 11 86 100 98 100 100 100 100 100 100 100 100 100 79 100 98 100 100 100 100 100 100 95
5 17 100 100 100 100 99 100 100 100 100 100 100 100 100 100 100 100 100 100 100 100 100 100 80 62 95 59 51 100 100 100 100 100 100 100 100 100 100 100 96 100 100 100 100 100 98

GFSGBSN_prec_cloud_036.txt.gz
Cloud_Cover
0 0 0 0 0 0 0 0 0 0 0 0 0 0 0 0 0 0 0 0 0 0 0 0 50 98 8 0 0 0 0 0 0 0 0 0 0 0 0 2 0 4 6 5 95 100 52
0 0 0 0 0 0 0 0 0 0 0 0 0 0 0 0 0 0 0 0 0 0 0 0 48 98 7 0 0 0 0 0 0 0 0 0 0 0 0 1 0 0 2 19 99 40 23
0 0 0 0 0 0 0 0 0 0 0 0 0 0 0 0 0 0 0 0 0 0 0 0 90 59 9 0 0 0 0 0 0 0 0 0 0 0 0 0 3 4 3 3 62 100 57
0 0 0 0 0 0 0 0 0 0 0 0 0 0 0 0 0 0 0 0 0 0 0 2 100 100 28 0 0 0 0 0 0 0 0 0 0 0 0 0 3 4 0 0 3 24 80
0 0 0 0 0 0 0 0 0 0 0 0 0 0 0 0 0 0 0 0 0 0 0 1 32 28 24 0 0 0 0 0 0 0 0 0 0 0 0 0 0 4 0 0 5 5 100
0 0 0 0 0 0 0 0 0 0 0 0 0 0 0 0 0 0 0 0 0 0 0 0 0 19 0 0 0 0 0 0 0 0 0 0 0 0 0 0 0 0 0 4 3 5 100
0 0 0 0 0 0 0 0 0 0 0 0 0 0 0 0 0 0 0 0 0 0 0 0 0 0 0 0 0 0 0 0 0 0 0 0 0 0 0 0 0 0 0 0 0 0 5
0 0 0 0 0 0 0 0 0 0 0 0 0 0 0 0 0 0 0 0 0 0 0 0 0 0 0 0 0 0 0 0 0 0 0 0 0 0 0 0 0 0 0 0 0 3 6
0 0 0 0 0 0 0 0 0 0 0 0 0 0 0 0 0 0 0 0 0 0 0 0 0 0 0 0 0 0 0 0 0 0 0 0 0 0 0 0 0 0 0 0 0 2 5
0 0 0 0 0 0 0 0 0 0 0 0 0 0 0 0 0 0 0 0 0 0 0 0 0 0 0 0 0 0 0 0 0 0 0 0 0 0 0 0 0 0 0 0 0 0 0
0 0 0 0 0 0 0 0 0 0 0 0 0 0 0 0 0 0 0 0 0 0 0 0 0 0 0 0 0 0 0 0 0 0 0 0 0 0 0 0 0 0 0 0 0 0 0
0 0 0 0 0 0 0 0 0 0 0 0 0 0 0 0 0 0 0 0 0 0 0 0 0 0 0 0 0 0 0 0 0 0 0 0 0 0 0 0 0 0 0 0 0 0 5
0 0 0 0 0 0 0 0 0 0 0 0 0 0 0 0 0 0 0 0 0 0 0 0 0 0 0 0 0 0 0 0 0 0 0 0 0 0 0 0 0 0 0 0 0 0 0
0 0 0 0 0 0 0 0 0 3 0 0 0 0 0 0 0 0 0 0 0 0 0 0 0 0 0 0 0 1 0 0 0 0 0 0 0 0 0 0 0 0 0 0 0 0 0
0 0 0 0 0 0 5 5 5 70 1 0 0 0 0 0 0 0 0 0 0 0 0 0 0 0 0 0 0 71 5 10 46 37 58 0 0 0 0 0 0 0 0 0 0 0 0
5 4 3 0 3 5 100 13 73 51 3 0 0 0 0 0 0 0 0 0 0 0 0 0 7 16 4 1 0 100 88 100 100 100 97 0 0 0 0 8 0 0 0 0 0 0 0
5 5 5 5 5 62 100 74 100 5 2 0 0 0 0 4 12 2 4 30 5 5 0 0 0 5 5 63 1 100 100 100 100 100 91 5 0 0 55 13 0 0 0 0 0 0 0
11 5 13 5 5 99 82 100 77 2 0 0 11 0 0 5 48 34 85 100 5 28 2 5 3 62 100 9 5 100 100 100 100 100 100 100 100 1 2 0 10 2 0 0 0 0 0
100 95 81 82 33 89 100 100 99 5 3 100 85 0 0 50 100 100 100 96 83 85 82 36 0 66 13 4 18 100 100 100 100 100 100 100 100 67 0 6 97 43 0 0 0 0 0
100 72 45 83 100 66 100 93 6 3 0 12 28 15 100 86 86 92 100 77 100 100 100 73 19 5 2 4 100 100 100 100 100 100 100 100 51 27 0 0 2 4 1 0 0 0 0
100 86 99 100 98 100 100 99 44 0 0 9 28 72 34 91 91 91 96 100 100 100 98 50 28 62 20 4 61 100 100 100 100 100 100 100 36 5 0 0 1 0 5 0 0 0 0
98 100 100 100 100 100 100 37 5 4 1 2 14 10 100 98 100 100 100 100 100 100 100 99 100 19 5 8 100 100 100 100 100 100 100 100 68 3 0 1 2 0 0 0 0 0 5
100 100 100 100 100 80 32 91 88 94 82 75 23 100 100 100 100 100 100 100 100 100 100 100 100 100 19 14 100 100 100 100 100 100 100 100 37 5 2 32 17 5 23 3 2 5 98
90 100 100 100 59 99 100 100 100 100 100 100 100 100 100 100 100 100 100 100 100 100 100 100 98 100 96 5 100 100 100 100 100 100 100 100 19 1 100 100 100 90 100 32 5 54 5
100 77 100 45 71 100 100 100 100 100 100 100 100 100 100 100 100 100 100 100 100 100 100 100 76 84 99 2 65 100 100 100 100 100 100 100 62 9 100 100 99 100 100 34 5 5 4
85 100 100 44 100 100 100 100 100 100 100 100 100 100 100 100 100 100 100 100 100 100 100 100 98 100 99 8 76 100 100 100 100 100 100 100 52 6 86 100 100 100 100 95 5 6 93
100 99 100 100 100 100 100 100 100 100 100 100 100 100 100 100 100 100 100 100 100 100 100 100 73 100 91 100 100 100 100 100 100 100 100 100 100 100 92 100 92 100 84 68 100 63 100
100 100 95 100 100 100 100 100 100 100 100 100 100 100 100 100 100 100 100 100 100 100 100 98 42 94 100 100 100 100 100 100 100 100 100 100 100 100 81 98 100 100 100 87 100 100 100
100 100 100 100 100 100 100 100 100 100 100 100 100 100 100 100 100 100 100 100 100 100 100 100 60 100 82 100 100 100 100 100 100 100 100 100 100 100 97 100 100 100 100 100 100 100 100

GFSGBSN_prec_cloud_039.txt.gz
Cloud_Cover
0 0 0 0 0 0 0 0 0 0 0 0 0 0 0 0 0 0 0 0 0 0 0 32 0 60 0 0 0 0 0 0 0 0 0 0 0 0 0 0 0 8 100 89 99 100 100
0 0 0 0 0 0 0 0 0 0 0 0 0 0 0 0 0 0 0 0 0 0 0 32 42 93 0 0 0 0 0 0 0 0 0 0 0 0 0 0 0 98 100 67 46 100 100
0 0 0 0 0 0 0 0 0 0 0 0 0 0 0 0 0 0 0 0 0 0 0 0 14 43 0 0 0 0 0 0 0 0 0 0 0 0 0 0 1 11 57 5 5 9 59
0 0 0 0 0 0 0 0 0 0 0 0 0 0 0 0 0 0 0 0 0 0 0 0 87 98 29 0 0 0 0 0 0 0 0 0 0 0 0 0 0 1 49 4 3 0 29
0 0 0 0 0 0 0 0 0 0 0 0 0 0 0 0 0 0 0 0 0 0 0 1 23 41 11 0 0 0 0 0 0 0 0 0 0 0 0 0 0 0 0 2 8 5 6
0 0 0 0 0 0 0 0 0 0 0 0 0 0 0 0 0 0 0 0 0 0 0 0 2 31 0 0 0 0 0 0 0 0 0 0 0 0 0 0 0 0 0 0 5 2 1
0 0 0 0 0 0 0 0 0 0 0 0 0 0 0 0 0 0 1 0 0 0 0 0 0 0 0 0 0 0 0 0 0 0 0 0 0 0 0 0 0 0 0 0 3 12 5
0 0 0 0 0 0 0 0 0 0 0 0 0 0 0 0 0 0 0 0 0 0 0 0 0 0 0 0 0 0 0 0 0 0 0 0 0 0 0 0 0 0 0 0 0 36 4
0 0 2 0 0 0 0 0 0 0 0 0 0 0 0 0 0 0 0 0 0 0 0 0 0 0 0 0 0 0 0 0 0 0 0 0 0 0 0 0 0 0 0 0 0 88 8
0 2 0 0 0 0 0 0 0 0 0 0 0 0 0 0 0 0 0 0 0 0 0 0 0 0 0 0 0 0 0 0 0 0 0 0 0 0 0 0 0 0 0 0 0 37 16
3 0 0 0 0 0 0 0 0 0 0 0 0 0 0 0 0 0 0 0 0 0 0 0 0 0 0 0 0 0 0 0 0 0 0 0 0 0 0 0 0 0 0 0 0 2 86
0 0 0 0 0 0 0 0 0 0 0 0 0 1 0 6 0 0 0 0 0 0 0 0 0 0 0 0 0 0 0 0 0 0 0 0 0 0 0 0 0 0 0 0 0 0 4
0 1 0 0 0 0 0 0 0 3 5 2 4 0 0 0 0 0 0 0 0 0 0 0 0 0 0 0 0 0 0 0 12 1 0 0 0 0 0 0 0 0 0 0 0 1 0
5 5 3 5 0 0 2 2 0 0 0 5 0 12 2 0 0 0 0 0 0 0 0 0 0 0 0 0 0 0 0 0 0 0 4 32 0 0 0 0 0 0 0 0 0 0 0
5 5 5 5 5 5 5 5 5 6 5 2 80 92 0 0 0 0 0 0 0 0 0 0 0 0 0 0 0 0 0 0 45 84 53 46 4 0 0 0 0 0 0 0 0 0 0
21 5 5 5 5 12 37 5 5 96 30 66 96 0 0 0 0 0 0 1 2 5 1 0 0 0 0 0 0 0 0 1 3 76 82 62 68 0 0 2 0 0 0 0 0 0 0
100 66 5 47 17 32 15 16 5 65 100 100 1 0 0 0 0 4 38 78 12 2 2 0 3 4 3 0 0 0 0 0 5 62 100 90 100 6 0 3 0 0 5 0 0 0 0
100 99 41 22 5 64 94 51 5 99 100 31 28 0 0 0 88 6 5 5 5 7 34 99 84 5 5 2 0 0 5 5 4 97 100 100 100 100 0 0 0 5 4 75 0 0 0
99 13 9 5 86 100 92 30 100 33 13 95 77 61 0 18 64 40 64 60 100 44 81 96 100 68 7 5 2 0 0 4 4 73 100 100 100 67 0 0 0 73 12 0 1 0 0
79 5 5 34 77 6 78 94 14 8 5 14 68 8 4 4 59 83 100 87 100 100 100 100 100 95 95 12 41 4 0 40 18 100 100 100 100 34 4 2 47 11 5 0 0 0 0
5 5 5 46 36 28 23 65 6 20 0 0 2 4 31 6 31 72 98 94 100 100 100 100 100 100 98 32 16 1 4 93 80 100 100 100 100 21 4 5 21 1 5 2 0 0 0
5 5 15 8 28 15 97 100 100 100 78 5 5 6 10 98 98 94 100 100 100 100 100 100 100 100 100 100 23 5 6 15 100 100 100 100 100 28 0 5 10 5 61 5 4 0 0
16 65 42 34 98 92 100 100 100 100 91 89 66 100 100 100 100 100 100 100 100 100 100 100 100 100 100 96 86 26 11 72 100 100 100 100 100 42 3 5 100 100 100 98 90 0 0
23 56 88 67 100 100 100 100 100 100 99 100 100 100 100 100 100 100 100 100 100 100 100 100 100 100 100 56 63 65 2 29 100 100 100 100 100 56 5 23 100 100 100 100 63 0 2
73 29 5 87 100 100 100 100 100 100 100 100 100 100 100 100 100 100 100 100 100 100 100 100 100 93 100 71 56 27 4 100 100 100 100 100 100 62 5 84 100 100 100 92 20 0 16
4 5 55 100 100 100 100 100 100 100 100 100 100 100 100 100 100 100 100 100 100 100 100 100 95 64 86 100 100 100 100 100 100 100 100 100 100 100 6 52 100 100 92 69 73 0 100
5 34 99 100 100 100 100 100 100 100 100 100 100 100 100 100 100 100 100 100 100 100 100 98 38 71 100 100 100 100 100 100 100 100 100 100 100 100 100 100 86 40 99 78 100 58 100
3 94 99 100 100 100 100 100 100 100 100 89 100 100 100 100 100 100 100 100 100 100 100 99 46 99 100 100 100 100 100 100 100 100 100 100 100 100 100 100 99 95 88 73 25 100 100
99 100 100 100 100 100 100 100 100 100 100 100 100 100 100 100 100 100 100 87 100 100 100 100 98 100 100 100 100 100 100 100 100 100 100 100 100 100 100 100 100 91 100 91 100 100 100

GFSGBSN_prec_cloud_042.txt.gz
Cloud_Cover
0 0 0 0 0 0 0 0 0 0 0 0 0 0 0 0 0 0 0 0 0 0 2 13 5 2 0 0 0 0 0 0 0 0 0 0 0 0 0 0 1 76 49 62 60 42 61
0 0 0 0 0 0 0 0 0 0 0 0 0 0 0 0 0 0 0 0 0 0 0 0 0 0 0 0 0 0 0 0 0 0 0 0 0 0 0 0 1 96 100 16 37 29 95
0 0 0 0 0 0 0 0 0 0 0 0 0 0 0 0 0 0 0 0 0 0 0 0 0 0 0 0 0 0 0 0 0 0 0 0 0 0 0 0 18 100 100 8 5 6 49
0 0 0 0 0 0 0 0 0 0 0 0 0 0 0 0 0 0 0 0 0 0 0 3 68 0 3 0 0 0 0 0 0 0 0 0 0 0 0 0 0 22 100 40 5 5 59
0 0 0 0 0 0 0 0 0 0 0 0 0 0 0 0 0 0 0 0 0 0 0 22 8 0 0 0 0 0 0 0 0 0 0 0 0 0 0 0 0 4 78 22 67 5 5
0 0 0 2 0 0 0 0 0 0 0 0 0 0 0 0 0 0 0 0 0 2 6 0 0 0 0 0 0 0 0 0 0 0 0 0 0 0 0 0 0 0 0 21 68 32 5
0 0 0 0 0 0 0 0 0 0 0 0 0 0 0 0 0 0 2 0 0 0 0 0 0 0 0 0 0 0 0 0 0 0 0 0 0 0 0 0 0 0 0 3 9 5 5
0 0 0 0 0 0 0 0 0 0 0 0 0 0 0 0 0 0 0 0 0 0 0 0 0 0 0 0 0 0 0 0 0 0 0 0 0 0 0 0 0 0 0 0 4 35 11
0 0 0 0 0 0 0 0 0 0 0 0 0 0 0 0 0 0 0 0 0 0 0 0 0 0 0 0 0 0 0 0 0 0 0 0 0 0 0 0 0 0 0 0 0 72 99
3 1 0 0 0 0 0 0 0 0 0 0 0 0 0 0 0 0 0 0 0 0 0 0 0 0 0 0 0 0 0 0 0 0 0 0 0 0 0 0 0 0 0 0 0 7 97
4 6 0 0 0 0 0 0 0 0 0 0 0 0 0 0 0 0 0 0 0 0 0 0 0 0 0 0 0 0 0 0 0 0 0 0 0 0 0 0 0 0 0 0 0 0 5
1 5 5 5 5 3 2 1 0 0 0 0 0 0 0 0 0 0 0 0 0 0 0 0 0 0 0 0 0 0 0 0 0 0 0 0 0 0 0 0 0 0 0 0 0 0 0
5 5 12 5 5 5 5 5 1 0 0 0 0 0 0 0 0 0 0 0 0 0 0 0 0 0 0 0 0 0 0 0 0 0 2 0 0 0 0 0 0 0 0 0 0 0 1
5 5 5 5 5 5 5 5 5 2 0 5 0 0 0 3 0 0 0 0 0 0 0 0 0 0 0 0 0 0 0 0 3 0 0 23 0 0 0 0 0 0 0 0 0 0 0
99 85 76 7 8 5 5 5 5 7 5 5 4 2 3 5 0 0 0 0 0 0 0 0 0 0 0 0 0 0 0 2 76 12 10 18 9 0 0 0 0 0 0 0 0 0 0
100 100 94 100 43 5 4 3 5 80 5 4 12 4 0 0 0 0 0 0 0 0 0 0 0 0 0 0 0 0 0 0 14 7 2 44 85 0 0 0 0 0 0 0 0 0 0
100 28 99 9 5 4 0 0 1 4 5 1 0 0 0 0 0 0 0 0 0 0 2 2 4 2 0 0 4 2 0 0 0 4 2 4 69 7 0 0 0 0 4 0 0 0 0
100 98 5 0 0 0 0 0 14 0 0 3 8 0 0 0 0 0 0 5 5 5 9 19 5 35 80 94 91 5 5 0 0 0 4 19 96 72 5 0 0 0 0 0 0 0 0
100 34 0 1 5 71 5 42 10 5 8 87 92 96 0 0 3 5 5 5 5 68 89 100 82 63 24 23 16 25 5 1 0 0 2 47 61 100 4 0 1 1 0 0 0 7 0
7 2 2 5 17 97 49 100 100 81 67 7 35 1 4 5 6 9 99 30 24 91 91 99 100 100 100 100 99 15 1 0 0 0 5 78 85 86 19 2 4 0 41 70 73 77 5
50 21 1 12 99 100 100 100 100 100 76 2 4 10 94 81 75 99 100 100 40 77 100 100 100 100 100 100 72 9 5 32 2 4 60 59 100 100 64 31 5 5 12 92 70 38 22
19 100 100 100 100 100 100 100 100 100 80 7 5 33 67 98 70 100 100 100 79 83 100 100 100 100 100 100 99 100 100 100 5 100 81 100 100 100 85 5 5 1 0 70 24 5 5
37 100 100 100 100 100 100 100 100 100 84 98 100 100 100 100 100 100 99 100 100 100 100 100 100 100 100 100 100 100 100 100 97 63 100 100 100 100 14 39 79 61 5 50 18 5 5
26 100 91 100 100 100 100 100 100 100 100 100 100 100 100 100 100 100 100 100 100 100 100 100 100 100 100 100 100 100 99 72 65 50 100 100 100 100 86 94 100 14 5 5 5 5 5
2 48 93 100 100 100 100 100 100 100 100 100 100 100 100 100 100 100 100 100 100 100 100 100 77 100 98 100 100 100 26 5 24 91 100 100 100 100 100 100 98 100 100 95 82 57 50
0 55 100 100 100 100 100 100 100 100 100 100 100 100 100 100 100 100 100 100 100 100 100 97 55 100 100 100 100 100 100 100 100 100 100 100 100 100 100 100 100 56 86 76 17 92 100
3 100 100 100 100 100 100 100 100 100 100 100 100 100 100 100 100 99 100 100 100 100 100 97 100 100 100 100 100 100 100 100 100 100 100 100 100 100 100 100 100 94 100 20 97 43 100
98 100 100 100 100 100 100 100 100 100 100 100 100 100 100 100 100 93 100 100 100 100 100 99 100 100 100 100 100 100 100 100 100 100 100 100 100 100 100 100 100 84 21 92 95 100 100
100 100 100 100 100 100 100 100 100 100 100 100 100 100 100 100 100 87 100 100 100 91 100 100 100 100 100 100 100 100 100 100 100 100 100 100 100 100 100 100 100 100 64 28 92 100 100

GFSGBSN_prec_cloud_045.txt.gz
Cloud_Cover
28 0 0 2 0 0 0 0 0 0 0 0 0 0 0 0 0 0 0 0 0 0 0 0 0 2 0 0 0 0 0 0 0 0 0 0 0 0 0 0 0 6 92 47 100 5 58
0 2 2 4 0 0 0 0 0 0 0 0 0 0 0 0 0 0 0 0 0 0 0 0 0 0 0 0 0 0 0 0 0 0 0 0 0 0 0 0 0 6 67 68 94 16 8
0 1 0 0 0 0 0 0 0 0 0 0 0 0 0 0 0 0 0 0 0 0 0 0 0 0 0 0 0 0 0 0 0 0 0 0 0 0 0 0 0 4 22 5 48 5 17
0 2 2 0 0 0 0 0 0 0 0 0 0 0 0 0 0 0 0 0 0 0 0 0 0 0 0 0 0 0 0 0 0 0 0 0 0 0 0 0 0 1 5 5 53 27 5
7 5 1 0 0 0 0 0 0 0 0 0 0 0 0 0 0 0 0 0 0 0 0 2 0 0 0 0 0 0 0 0 0 0 0 0 0 0 0 0 0 0 5 58 26 82 47
0 0 0 0 0 0 0 0 0 0 0 0 0 0 0 0 0 0 0 0 0 0 0 0 0 0 0 0 0 0 0 0 0 0 0 0 0 0 0 0 0 0 1 5 15 7 6
0 0 0 0 0 0 0 0 0 0 0 0 0 0 0 0 0 0 0 0 0 0 0 0 0 0 0 0 0 0 0 0 0 0 0 0 0 0 0 0 0 0 0 5 52 5 5
0 0 0 0 0 0 0 0 0 0 0 0 0 0 0 0 0 0 0 0 0 0 0 0 0 0 0 0 0 0 0 0 0 0 0 0 0 0 0 0 0 0 0 0 97 37 9
3 0 0 0 0 0 0 0 0 0 0 0 0 0 0 0 0 0 0 0 0 0 0 0 0 0 0 0 0 0 0 0 0 0 0 0 0 0 0 0 0 0 0 0 12 17 81
0 1 0 0 0 0 0 0 0 0 0 0 0 0 0 0 0 0 0 0 0 0 0 0 0 0 0 0 0 0 0 0 0 0 0 0 0 0 0 0 0 0 0 0 0 8 35
1 0 5 1 5 4 2 2 0 0 0 0 0 0 0 0 0 0 0 0 0 0 0 0 0 0 0 0 0 0 0 0 0 0 0 0 0 0 0 0 0 0 0 0 0 0 5
22 5 5 14 43 5 5 4 3 2 0 0 0 0 1 0 0 0 0 0 0 0 0 0 0 0 0 0 0 0 0 0 0 0 0 0 0 0 0 0 0 0 0 0 0 0 3
100 68 23 46 18 5 5 5 5 2 0 0 0 0 0 0 0 0 0 0 0 0 0 0 0 0 0 0 0 0 0 0 0 0 0 0 0 0 0 0 0 0 0 0 0 0 0
99 100 89 40 84 5 5 0 0 0 0 0 0 0 0 0 0 0 0 0 0 0 0 0 0 0 0 0 0 0 0 0 0 0 0 0 0 0 0 0 0 0 0 0 0 0 0
99 100 100 99 5 1 0 0 0 0 0 0 0 0 0 0 0 0 0 0 0 0 0 0 0 0 0 0 0 0 0 0 0 0 0 0 0 0 0 0 0 0 0 0 0 0 0
66 86 99 14 0 0 0 0 0 0 0 1 0 0 0 0 0 0 0 0 0 0 0 0 0 0 0 0 0 0 0 0 1 0 0 4 0 0 0 0 0 0 0 0 0 0 0
47 80 23 0 0 0 0 0 9 2 0 0 0 0 0 0 0 0 0 0 0 0 0 0 0 0 0 0 0 0 0 0 0 0 0 0 1 0 0 0 0 0 0 0 0 0 0
15 4 0 0 0 0 12 100 100 21 0 0 0 0 0 0 0 0 0 5 5 5 5 5 5 5 5 5 4 4 4 5 1 0 2 4 46 7 0 0 0 0 0 0 8 2 0
9 4 1 0 20 98 100 100 100 100 68 29 1 0 0 0 4 5 5 5 5 10 27 80 90 98 94 59 32 100 100 99 33 4 4 5 27 0 0 0 0 0 0 0 0 0 3
100 24 8 98 100 100 100 100 100 100 50 5 0 3 4 5 5 76 100 25 5 5 23 100 100 100 96 98 100 99 100 100 100 74 5 2 30 1 0 0 13 12 0 0 0 29 25
100 34 97 100 100 100 100 100 100 100 14 5 5 21 32 59 60 100 100 98 95 84 41 94 100 100 100 100 100 100 100 100 100 100 51 5 7 8 5 1 7 5 5 0 0 1 48
52 100 100 100 100 100 100 100 100 100 21 66 68 95 100 100 100 100 91 100 100 100 100 100 100 100 100 100 100 100 100 100 100 48 5 14 4 61 4 0 1 5 5 0 2 0 0
23 43 100 100 100 100 100 100 100 100 71 96 100 100 100 100 100 100 100 100 100 100 100 100 100 100 100 100 98 59 96 88 65 19 63 44 56 47 1 32 97 64 5 0 0 0 0
1 34 100 100 100 100 100 100 100 100 100 100 100 100 100 100 100 100 100 100 100 100 100 100 100 100 95 96 100 71 99 100 100 100 86 90 98 76 14 100 100 5 38 0 92 21 0
0 77 100 100 100 100 100 100 100 100 100 100 100 100 100 100 100 100 96 96 79 98 98 57 92 100 100 97 100 100 100 100 36 94 51 90 92 97 100 100 91 11 98 59 73 0 5
22 100 100 100 100 100 100 100 100 100 100 100 100 100 100 100 100 100 100 100 100 100 99 100 100 100 100 100 100 100 100 100 100 55 6 98 91 100 100 100 100 100 100 15 32 36 21
100 100 100 100 100 100 100 100 77 100 100 100 100 100 100 100 58 80 100 100 100 100 100 100 100 100 100 100 100 100 100 100 100 100 100 100 100 100 100 100 100 100 100 51 60 48 100
100 100 99 100 100 100 100 63 59 100 100 100 100 74 100 100 86 22 98 100 100 100 100 47 100 100 100 100 100 100 100 100 100 100 100 100 100 100 100 100 100 100 100 98 64 98 100
100 100 100 100 100 100 100 94 100 100 100 100 100 100 96 100 58 14 9 48 100 100 100 100 100 100 100 100 100 100 100 100 100 100 100 100 100 100 100 100 100 100 100 88 100 100 100

GFSGBSN_prec_cloud_048.txt.gz
Cloud_Cover
4 2 1 5 0 0 0 0 0 0 0 0 0 0 0 0 0 0 0 0 0 0 0 0 0 0 4 0 0 0 0 0 0 0 0 0 0 0 0 0 0 0 32 41 17 99 58
0 0 0 1 0 0 0 0 0 0 0 0 0 0 0 0 0 0 0 0 0 0 0 0 0 0 0 0 0 0 0 0 0 0 0 0 0 0 0 0 0 0 6 85 18 100 100
0 2 0 0 0 0 0 0 0 0 0 0 0 0 0 0 0 0 0 0 0 0 0 0 0 1 0 0 0 0 0 0 0 0 0 0 0 0 0 0 0 0 3 6 8 70 84
0 1 0 0 0 0 0 0 0 0 0 0 0 0 0 0 0 0 0 0 0 0 0 0 0 0 0 0 0 0 0 0 0 0 0 0 0 0 0 0 0 0 0 5 7 88 20
5 3 0 0 0 0 0 0 0 0 0 0 0 0 0 0 0 0 0 0 0 0 0 0 0 0 0 0 0 0 0 0 0 0 0 0 0 0 0 0 0 0 0 0 5 5 23
0 2 0 0 0 0 0 0 0 0 0 0 0 0 0 0 0 0 0 0 0 10 0 0 0 0 0 0 0 0 0 0 0 0 0 0 0 0 0 0 0 0 0 0 5 5 7
1 0 1 1 0 0 0 0 0 0 0 0 0 0 0 0 0 0 5 0 0 0 0 0 0 0 0 0 0 0 0 0 0 0 0 0 0 0 0 0 0 0 0 0 5 84 100
0 3 0 0 0 0 0 0 0 0 0 0 0 0 0 0 0 0 0 0 0 0 0 0 0 0 0 0 0 0 0 0 0 0 0 0 0 0 0 0 0 0 0 0 5 99 11
0 0 0 2 0 0 0 0 0 0 0 0 0 0 0 0 0 1 0 0 0 0 0 0 0 0 0 0 0 0 0 0 0 0 0 0 0 0 0 0 0 0 0 0 18 5 5
91 8 0 2 0 0 0 0 0 0 0 0 0 0 0 19 7 0 0 0 0 0 0 0 0 0 0 0 0 0 0 0 0 0 0 0 0 0 0 0 0 0 0 0 0 5 6
100 72 60 15 0 0 1 5 0 0 0 0 0 0 0 12 0 0 0 0 0 0 0 0 0 0 0 0 0 0 0 0 0 0 0 0 0 0 0 0 0 0 0 0 0 4 51
100 59 97 2 5 4 5 5 0 0 0 0 0 0 8 27 0 0 0 0 0 0 0 0 0 0 0 0 0 0 0 0 0 0 0 0 0 0 0 0 0 0 0 0 0 0 25
39 25 98 6 5 1 0 0 0 0 0 0 0 0 15 0 0 0 0 0 0 0 0 0 0 0 0 0 0 0 0 0 0 0 0 0 0 0 0 0 0 0 0 0 0 0 0
85 97 97 27 5 0 0 0 0 0 0 0 0 36 0 0 0 0 0 0 0 0 0 0 0 0 0 0 0 0 0 0 0 0 0 0 0 0 0 0 0 0 0 0 0 0 0
99 27 4 0 0 0 0 0 0 0 0 0 14 0 0 0 0 0 0 0 0 0 0 0 0 0 0 0 0 0 0 0 0 0 0 0 0 0 0 0 0 0 0 0 2 5 0
14 0 0 0 0 0 3 81 90 0 0 0 0 0 0 0 0 0 0 0 0 0 0 0 0 0 0 3 0 0 0 0 0 0 0 0 0 0 0 0 0 0 0 21 1 20 0
1 1 0 0 15 67 97 100 100 23 0 0 0 0 0 0 0 0 4 4 0 0 0 0 0 4 3 5 5 5 4 2 0 0 0 0 0 0 0 0 0 0 0 28 52 1 0
0 5 0 100 100 98 100 100 100 33 0 0 0 0 0 0 5 0 5 3 0 5 5 4 4 5 14 59 84 91 86 5 0 0 0 2 0 0 0 0 0 0 0 0 7 6 0
100 48 100 100 100 100 100 100 95 0 0 0 0 0 0 0 46 64 9 12 5 23 81 92 92 87 96 99 100 100 100 36 5 0 2 5 0 0 0 0 0 0 0 0 1 18 77
13 100 100 100 100 100 100 97 13 0 0 6 4 30 26 16 26 14 12 10 58 5 66 63 76 99 100 100 100 100 100 100 90 49 4 5 0 0 0 0 6 0 0 0 5 4 0
71 100 100 100 100 100 100 39 0 0 5 40 100 29 26 64 78 99 91 67 67 74 78 71 80 100 100 93 100 100 100 100 100 100 100 58 18 5 1 0 0 0 0 0 4 5 1
100 100 100 100 100 64 82 65 23 5 72 93 99 96 100 100 91 45 16 45 88 98 98 87 86 85 50 94 100 100 100 100 100 100 100 100 55 100 33 5 1 0 0 0 0 5 0
41 87 100 100 100 100 100 100 100 11 38 99 100 100 100 100 72 92 83 100 98 100 100 100 100 100 100 93 58 93 94 68 95 82 100 94 88 98 11 8 0 1 0 0 0 0 0
1 100 100 100 100 100 100 100 100 88 100 100 100 100 100 66 76 98 93 100 98 100 84 88 100 97 77 85 100 89 80 64 98 100 100 94 100 98 5 37 97 0 0 0 0 0 0
28 100 100 100 100 98 100 100 100 90 100 100 88 100 96 99 100 100 100 100 98 90 100 72 100 100 100 98 100 100 100 93 100 100 100 99 100 86 100 7 2 0 0 1 0 0 0
100 100 100 100 100 40 56 9 26 97 100 100 100 100 100 99 37 74 100 100 100 100 77 99 100 100 100 100 100 100 100 100 67 100 100 99 92 96 100 95 65 11 38 74 82 25 18
100 100 100 100 27 31 98 8 90 100 100 100 100 100 99 91 80 97 96 100 100 100 100 90 99 100 100 100 100 100 100 100 100 100 100 88 100 97 57 96 74 100 100 100 100 26 30
100 100 100 98 0 66 53 5 76 100 100 100 100 100 100 88 99 66 95 99 100 100 100 82 90 99 100 100 100 100 100 100 100 100 100 100 100 100 100 100 100 100 100 100 100 86 95
100 100 100 100 17 10 40 5 5 96 99 100 100 100 75 100 63 91 62 56 82 92 100 99 100 100 100 100 100 100 100 100 100 100 100 100 100 100 100 100 100 100 100 100 100 100 100

GFSGBSN_prec_cloud_051.txt.gz
Cloud_Cover
0 0 0 1 1 0 0 0 0 0 0 0 0 0 0 0 0 0 0 0 0 0 0 1 15 0 20 0 0 0 0 0 0 0 0 0 0 0 0 0 0 0 75 44 27 78 89
0 0 0 0 0 0 0 0 0 0 0 0 0 0 0 0 0 0 0 0 0 0 0 0 0 0 0 0 0 0 0 0 0 0 0 0 0 0 0 0 0 0 0 90 53 7 91
1 0 0 0 0 0 0 0 0 0 0 0 0 0 0 0 0 0 0 0 0 0 0 0 0 0 0 0 0 0 0 0 0 0 0 0 0 0 0 0 0 0 0 11 57 88 100
5 0 0 0 0 0 0 0 0 0 0 0 0 0 0 0 0 0 0 0 0 0 0 0 0 0 0 0 0 0 0 0 0 0 0 0 0 0 0 0 0 0 0 11 49 44 55
7 0 0 0 0 0 0 0 0 0 0 0 0 0 0 0 0 0 0 0 0 0 0 0 0 0 0 0 0 0 0 0 0 0 0 0 0 0 0 0 0 0 0 0 5 5 31
0 0 0 0 0 0 0 0 0 0 0 0 0 0 0 0 0 0 0 5 0 11 16 0 0 0 0 0 0 0 0 0 0 0 0 0 0 0 0 0 0 0 0 0 3 6 41
0 0 0 0 0 0 0 0 0 0 0 0 0 0 0 0 0 0 12 0 0 0 0 0 0 0 0 0 0 0 0 0 0 0 0 0 0 0 0 0 0 0 0 0 4 23 15
78 28 0 0 0 0 0 0 0 0 0 0 0 0 0 0 0 0 9 0 0 0 0 0 0 0 0 0 0 0 0 0 0 0 0 0 0 0 0 0 0 0 0 0 0 56 43
39 91 7 0 0 0 0 0 0 2 0 0 0 0 0 0 4 0 0 0 0 0 0 0 0 0 0 0 0 0 0 0 0 0 0 0 0 0 0 0 0 0 0 0 1 5 6
8 1 0 0 0 0 0 0 0 0 56 96 5 0 0 14 9 0 0 0 0 0 0 0 0 0 0 0 0 0 0 0 0 0 0 0 0 0 0 0 0 0 0 0 0 9 5
7 3 0 0 0 3 0 0 0 0 0 0 0 5 2 26 0 0 0 0 0 0 0 0 0 0 0 0 0 0 0 0 0 0 0 0 0 0 0 0 0 0 0 0 0 0 1
100 71 5 1 2 2 0 0 0 0 0 0 0 0 4 0 0 0 0 0 0 0 0 0 0 0 0 0 0 0 0 0 0 0 0 0 3 0 0 0 0 0 0 0 0 0 0
98 94 2 1 0 0 0 0 0 0 0 0 0 0 22 0 0 0 0 0 0 0 0 0 0 0 0 0 0 0 0 0 0 0 0 0 0 0 0 0 0 0 0 0 0 0 0
100 46 3 0 0 0 0 0 0 0 0 0 0 30 0 0 0 0 0 0 0 0 0 0 0 0 0 0 0 0 0 0 0 0 0 0 0 0 0 0 0 0 0 0 0 0 0
100 66 2 0 0 0 47 86 0 0 0 0 16 0 0 0 0 0 0 0 2 2 0 0 0 0 0 0 0 0 0 0 0 0 0 0 0 0 0 0 0 5 26 0 0 4 0
100 90 4 0 13 96 100 98 0 0 0 0 0 0 0 0 0 0 0 0 0 0 0 0 3 0 0 4 0 0 0 0 0 0 0 0 0 0 0 0 0 0 0 16 2 10 2
100 99 5 59 100 91 100 50 0 0 0 0 0 18 0 0 0 1 38 80 5 1 0 0 4 5 41 5 49 12 5 2 0 0 0 0 0 0 0 0 0 0 0 2 94 26 2
98 30 99 100 100 80 94 14 0 0 0 1 1 50 5 1 67 28 97 0 0 5 5 4 5 6 81 100 100 100 82 99 52 5 0 0 0 0 0 0 0 0 0 0 4 5 5
100 100 100 100 100 98 11 0 0 1 2 2 8 14 13 4 100 98 27 17 3 5 89 38 41 91 95 92 72 75 100 100 88 48 4 8 0 0 0 0 0 0 0 0 2 16 69
63 100 100 100 74 29 34 0 0 30 54 65 100 100 21 13 5 5 22 36 81 29 48 85 79 71 94 97 100 100 100 100 8 85 12 4 6 5 0 46 0 0 0 0 0 14 27
100 100 100 100 100 98 76 0 0 5 100 96 94 100 100 78 41 86 89 62 82 66 71 63 94 93 90 51 92 76 100 100 58 100 41 39 12 3 1 2 0 0 0 0 0 0 32
100 98 100 100 100 97 100 10 0 3 78 100 100 99 97 89 100 100 32 25 100 85 38 56 22 49 74 49 70 74 87 92 95 100 100 100 100 100 99 72 2 0 0 0 0 0 0
100 100 100 100 100 100 100 97 0 5 59 100 100 100 100 100 96 89 91 98 76 99 42 42 25 44 61 84 38 72 86 37 13 78 61 99 100 100 79 100 97 39 0 0 0 0 0
98 92 100 100 100 100 100 29 3 13 83 78 17 62 100 100 7 29 18 76 74 88 100 95 92 100 100 100 88 57 49 46 77 22 49 98 100 100 58 100 100 99 10 1 0 0 0
100 42 100 100 78 80 31 3 5 86 12 88 55 100 100 100 66 100 64 100 78 98 81 52 100 100 100 100 99 100 100 99 100 100 99 100 99 100 94 99 33 98 100 8 2 2 0
100 41 100 93 92 3 0 2 5 97 88 92 100 100 94 98 11 66 56 100 100 80 96 100 100 100 100 100 100 100 100 100 100 100 100 100 100 100 99 93 75 5 92 100 2 0 0
100 52 100 90 4 5 0 0 5 68 99 100 99 93 73 66 5 30 64 96 31 91 100 88 98 100 100 100 100 100 100 100 100 100 100 100 100 86 8 12 45 30 94 22 98 4 0
100 67 100 97 5 0 0 0 5 26 98 88 100 100 100 100 8 7 54 88 98 55 100 84 100 100 100 100 100 100 100 100 100 100 100 100 100 100 100 100 100 46 10 5 2 0 21
100 97 100 100 5 0 0 1 5 68 30 79 96 96 74 97 45 5 4 5 20 9 40 100 99 97 100 100 100 100 100 100 100 100 100 100 100 100 100 100 100 100 100 100 76 100 99

GFSGBSN_prec_cloud_057.txt.gz
Cloud_Cover
0 0 0 0 0 0 0 0 0 0 0 0 0 0 0 0 0 0 0 0 0 0 24 2 5 0 3 0 0 0 0 0 0 0 0 0 0 0 0 0 0 0 2 92 100 43 100
0 0 0 0 6 0 0 0 0 0 0 0 0 0 0 0 0 0 0 0 0 0 36 0 9 0 0 0 0 0 0 0 0 0 0 0 0 0 0 0 0 0 0 19 98 100 26
0 0 0 0 0 0 0 0 0 0 0 0 0 0 0 0 0 0 0 0 0 0 2 0 0 0 0 0 0 0 0 0 0 0 0 0 0 0 0 0 0 0 0 14 29 85 36
0 0 0 0 0 0 0 0 0 0 0 0 0 0 0 0 0 0 0 0 0 0 0 0 0 0 0 0 0 0 0 0 0 0 0 0 0 0 0 0 0 0 0 0 0 2 5
0 0 0 0 0 5 0 0 0 0 0 0 0 0 0 0 0 0 0 0 0 0 0 0 0 0 0 0 0 0 0 0 0 0 0 0 0 0 0 0 0 0 0 0 0 0 5
100 69 1 0 0 0 0 0 0 0 0 0 0 0 9 1 0 0 0 0 0 0 0 0 0 0 0 0 0 0 0 0 0 0 0 0 0 0 0 0 0 0 0 0 0 3 5
100 68 0 0 0 0 0 1 0 0 0 0 0 0 0 0 0 0 4 0 0 0 0 0 0 0 0 0 0 0 0 0 0 0 0 0 0 0 0 0 0 0 0 0 0 17 5
100 96 3 0 0 0 3 5 0 0 0 0 0 0 0 0 0 0 5 0 0 0 0 0 0 0 0 0 0 0 0 0 0 0 0 0 0 0 0 0 0 0 0 0 0 0 5
100 77 2 0 0 3 6 5 0 0 0 0 0 0 0 0 0 0 0 0 0 0 0 0 0 0 0 0 0 0 0 0 0 0 0 0 0 0 0 0 0 0 0 0 0 0 2
100 66 47 2 0 5 5 3 0 0 0 0 0 0 0 4 0 0 0 0 0 0 0 0 0 0 0 0 0 0 0 0 0 0 0 0 0 0 0 0 0 0 0 0 0 0 0
100 79 0 0 28 99 53 0 0 0 0 0 0 0 0 48 0 0 0 0 0 0 0 0 0 0 0 0 0 0 0 0 0 0 0 0 0 0 0 0 0 0 0 0 0 0 0
42 15 0 0 5 100 100 98 0 0 0 0 0 0 13 0 0 0 0 0 0 0 0 0 0 0 0 0 0 0 0 0 0 0 0 0 0 0 0 0 0 0 0 0 0 0 0
22 15 3 2 19 100 100 100 0 0 0 0 0 0 46 0 0 0 0 0 0 4 3 0 0 0 0 0 0 0 0 0 0 0 0 0 0 0 0 0 0 0 0 0 0 0 0
5 5 7 43 100 100 100 100 0 0 0 0 0 0 0 0 0 0 0 0 20 100 71 5 0 0 0 0 0 0 0 0 0 0 0 0 0 0 0 0 0 0 0 0 0 0 0
0 0 5 97 100 100 100 88 0 0 0 0 0 0 0 0 0 0 0 0 99 65 99 41 81 4 20 5 0 0 0 0 5 0 0 0 0 0 0 0 0 0 0 0 0 0 0
5 4 51 100 100 100 100 63 0 0 0 0 0 1 1 0 0 0 2 53 56 3 7 20 0 0 0 28 69 5 1 0 0 0 0 0 0 0 0 0 0 0 0 0 0 0 0
6 10 51 100 100 100 100 62 0 0 0 2 12 10 71 3 5 0 71 100 100 42 0 0 0 0 4 4 5 46 93 18 0 0 0 0 0 0 0 0 0 0 0 1 0 0 0
95 71 100 100 100 94 100 47 0 0 0 5 100 24 62 19 31 89 66 5 92 54 5 3 0 0 5 2 0 4 7 5 0 0 0 0 0 1 0 0 0 0 0 2 5 0 0
71 100 100 100 99 80 100 6 0 0 0 16 80 100 100 100 53 100 100 70 5 5 5 2 3 4 4 0 0 0 0 1 0 0 0 0 0 0 4 0 2 0 0 0 0 1 0
100 100 100 100 100 100 63 3 0 0 0 14 84 100 100 100 100 100 98 14 5 24 4 0 0 0 0 3 4 2 0 0 0 2 0 0 0 0 0 0 10 0 0 0 0 4 0
100 100 100 100 73 100 37 3 0 0 0 9 41 100 100 98 100 100 100 100 83 93 87 100 99 79 4 0 2 5 14 5 5 0 4 3 2 0 0 0 0 0 0 0 0 0 0
100 100 100 100 84 46 100 0 0 0 0 5 14 100 100 100 100 100 100 100 100 100 62 20 3 5 5 2 4 5 5 28 5 3 5 5 0 1 0 0 0 0 0 0 0 0 0
100 100 100 100 86 100 14 0 0 0 0 7 10 72 100 98 98 100 100 80 33 24 3 1 2 5 6 6 6 2 1 1 2 5 4 4 5 3 1 3 4 1 0 0 0 0 0
100 100 100 100 31 91 0 5 0 0 0 98 100 100 81 66 62 90 100 86 20 10 5 56 6 8 5 9 3 3 5 25 71 75 4 92 5 100 15 95 51 0 2 0 0 0 0
100 100 100 99 97 5 5 1 0 0 0 32 100 100 70 76 76 100 42 6 5 17 22 64 42 22 19 61 5 5 74 98 97 99 95 99 100 70 84 78 1 0 0 2 0 0 0
100 100 100 22 92 8 74 0 0 0 0 0 0 0 64 100 100 86 28 9 18 1 37 12 54 99 13 100 42 84 100 12 100 100 100 64 68 87 100 96 4 0 24 86 95 0 0
100 100 100 100 0 100 13 0 0 4 0 0 0 0 0 4 0 1 0 1 2 2 5 12 7 55 6 90 98 94 100 90 100 100 100 100 95 46 96 100 52 20 11 91 39 6 0
100 100 100 12 62 92 0 0 0 5 0 0 0 0 0 3 5 4 3 5 5 11 28 5 31 10 8 100 100 100 100 100 100 96 100 100 100 100 100 100 87 31 8 64 73 0 7
100 100 100 6 100 26 0 0 0 0 0 0 10 0 0 0 6 0 3 5 0 0 5 52 5 57 22 100 98 99 100 100 100 100 89 100 100 100 100 100 41 30 55 17 28 93 62

GFSGBSN_prec_cloud_060.txt.gz
Cloud_Cover
0 1 0 0 0 0 0 0 0 0 0 0 0 0 1 3 9 1 0 0 0 0 1 91 10 9 0 0 0 0 0 0 0 0 0 0 0 0 0 0 0 0 34 5 5 27 100
0 0 0 0 0 0 0 0 0 0 0 0 0 0 0 5 0 1 0 0 0 0 0 31 10 13 0 0 0 0 0 0 0 0 0 0 0 0 0 0 0 0 9 12 8 7 45
7 15 3 0 0 0 0 0 0 0 0 0 0 0 2 7 0 1 2 0 0 0 0 2 1 0 0 0 0 0 0 0 0 0 0 0 0 0 0 0 0 0 3 5 67 5 5
100 99 10 0 0 0 0 0 0 0 0 0 0 2 3 7 3 0 0 0 0 0 0 0 0 0 0 0 0 0 0 0 0 0 0 0 0 0 0 0 0 0 0 0 54 5 5
100 100 6 1 0 0 0 0 0 0 0 0 0 0 4 4 0 0 0 0 0 0 0 0 0 0 0 0 0 0 0 0 0 0 0 0 0 0 0 0 0 0 0 0 0 5 0
100 93 49 7 0 0 0 0 0 0 0 0 0 0 0 0 0 0 0 0 0 0 0 0 0 0 0 0 0 0 0 0 0 0 0 0 0 0 0 0 0 0 0 0 1 44 40
100 100 40 4 0 0 0 0 3 3 92 13 5 0 0 0 0 0 15 0 0 0 0 0 0 0 0 0 0 0 0 0 0 0 0 0 0 0 0 0 0 0 0 0 0 5 54
100 91 67 1 0 0 0 0 8 100 100 100 6 0 0 0 0 0 55 0 0 0 0 0 0 0 0 0 0 0 0 0 0 0 0 0 0 0 0 0 0 0 0 0 0 0 0
81 48 93 0 0 0 0 2 87 99 100 100 15 0 0 0 5 0 0 0 0 0 0 0 0 0 0 0 0 0 0 0 0 0 0 0 0 0 0 0 0 0 0 0 0 0 0
92 96 0 0 0 0 0 5 90 100 100 20 0 0 0 23 0 0 0 0 0 0 0 0 0 0 0 0 0 0 0 0 0 0 0 0 0 0 0 0 0 0 0 0 0 0 0
6 0 0 0 0 0 0 10 100 98 99 0 0 0 0 2 1 0 0 0 0 0 0 0 0 0 0 0 0 0 0 0 0 0 0 0 0 0 0 0 0 0 0 0 0 0 0
10 9 5 0 4 0 39 49 98 3 97 0 0 0 38 0 1 0 0 0 0 0 0 0 0 0 0 0 0 0 0 0 0 0 0 0 0 0 0 0 0 0 0 0 0 0 0
6 3 1 4 5 3 4 100 100 5 96 0 0 0 54 0 0 0 0 0 5 2 0 1 0 0 0 0 0 0 0 0 0 0 0 0 0 0 0 0 0 0 0 0 0 0 0
0 1 5 5 47 2 83 100 100 6 2 0 0 0 0 0 0 0 0 2 0 5 51 5 19 0 0 0 0 0 0 0 0 0 0 0 0 0 0 0 0 0 0 0 0 0 0
29 46 46 32 100 5 100 100 7 80 3 0 0 0 0 0 0 0 0 5 2 43 100 97 5 5 0 0 0 0 0 0 0 0 0 0 0 0 0 0 0 0 0 0 0 0 0
75 51 40 96 100 29 100 45 19 67 3 0 1 0 0 0 0 0 3 3 4 61 27 95 100 12 0 0 2 5 1 0 0 0 0 0 0 0 0 0 0 0 0 0 0 0 0
6 73 86 100 100 100 100 93 7 24 0 1 34 93 4 5 19 4 5 38 16 4 5 4 5 12 5 3 0 0 5 3 0 0 0 0 0 0 0 0 0 0 0 0 0 0 0
94 100 66 100 100 100 100 100 0 0 0 0 69 100 98 98 98 100 82 5 3 2 3 3 1 5 4 4 4 3 0 3 5 0 0 0 4 5 1 0 0 0 0 0 0 0 0
82 94 98 99 100 100 100 35 0 4 32 30 90 30 94 100 100 76 52 26 44 5 5 4 0 0 0 2 1 3 1 0 0 5 1 0 0 0 0 1 0 0 0 0 0 0 0
79 100 100 100 100 100 84 0 4 0 13 13 3 100 57 100 100 100 100 96 62 5 4 0 2 3 0 0 0 0 0 1 5 0 4 23 0 0 2 1 4 0 0 0 0 0 0
96 100 100 100 100 100 0 2 3 0 0 1 4 52 100 88 100 100 100 100 100 100 41 40 23 8 2 0 0 0 0 0 0 0 0 2 30 4 0 0 3 92 13 0 0 0 0
100 100 100 100 100 100 75 5 0 0 0 2 5 15 100 100 90 100 100 100 100 100 100 100 92 8 9 5 5 1 0 0 0 0 0 1 0 5 5 0 0 1 70 60 0 0 0
100 100 100 100 100 92 50 2 0 0 0 0 98 95 37 100 100 100 100 100 80 45 52 18 5 0 0 0 0 0 0 0 0 0 0 0 0 5 3 0 0 0 0 95 7 1 0
100 100 100 100 100 100 4 0 0 0 0 0 7 100 100 72 92 100 100 100 100 95 100 26 10 0 0 0 0 1 3 0 2 3 3 0 3 51 40 5 16 0 0 0 2 61 4
100 100 100 100 100 79 2 0 0 0 0 0 0 0 45 100 97 100 86 54 45 6 5 7 5 4 5 0 5 5 5 5 5 9 21 26 5 88 92 5 1 0 0 0 0 0 2
100 100 100 100 100 5 0 5 0 0 0 0 0 0 0 0 0 0 0 0 0 1 4 5 5 4 1 2 5 14 69 27 95 100 94 64 67 5 89 46 47 64 0 0 0 0 12
100 100 100 100 65 2 4 4 0 0 0 0 0 0 0 0 0 0 0 0 1 0 3 3 5 1 5 3 70 94 100 91 21 100 49 91 30 80 98 93 70 60 9 23 43 21 0
100 100 100 100 65 57 3 5 0 0 0 0 0 0 0 0 0 0 0 0 0 0 4 0 10 5 5 20 50 100 100 100 91 84 100 53 96 21 100 91 92 62 88 72 21 27 87
100 100 100 100 99 100 40 4 0 0 0 0 0 0 0 0 0 0 3 5 4 4 0 4 7 5 5 6 32 61 100 100 100 97 100 100 92 94 83 5 21 5 36 46 94 100 100

GFSGBSN_prec_cloud_063.txt.gz
Cloud_Cover
74 61 21 5 2 2 0 0 0 0 0 0 1 6 16 14 7 2 2 8 4 16 9 27 22 10 0 0 0 0 0 0 0 0 0 0 0 0 0 0 0 33 98 2 0 2 100
100 100 100 23 0 0 0 0 0 0 0 0 4 12 10 14 17 10 8 3 6 11 2 14 38 4 0 0 0 0 0 0 0 0 0 0 0 0 0 0 0 96 73 1 0 0 27
100 100 100 78 2 0 0 0 0 0 0 1 7 15 18 14 12 1 2 0 1 0 0 1 3 0 0 0 0 0 0 0 0 0 0 0 0 0 0 0 0 51 6 0 0 0 0
100 100 98 46 6 0 0 0 0 0 0 7 16 23 25 6 1 1 1 0 0 0 0 0 15 0 0 0 0 0 0 0 0 0 0 0 0 0 0 0 0 0 0 0 0 0 0
100 100 100 93 12 0 0 0 0 0 0 1 6 29 15 0 0 4 0 0 0 0 0 0 2 0 0 0 0 0 0 0 0 0 0 0 0 0 0 0 0 0 0 3 0 0 0
100 100 100 71 0 0 0 0 0 0 0 0 2 96 16 76 100 12 16 0 0 0 0 0 0 0 0 0 0 0 0 0 0 0 0 0 0 0 0 0 0 0 0 4 0 0 1
100 85 99 13 0 0 0 2 60 25 1 0 2 100 100 100 18 50 73 0 0 0 0 0 0 0 0 0 0 0 0 0 0 0 0 0 0 0 0 0 0 0 0 0 4 4 0
92 99 6 0 0 0 14 16 5 1 0 0 36 10 0 0 33 39 71 0 0 0 0 0 0 0 0 0 0 0 0 0 0 0 0 0 0 0 0 0 0 0 0 0 4 86 5
94 1 0 0 7 0 0 0 68 44 2 5 96 100 100 27 10 3 0 0 0 0 0 0 0 3 1 0 0 0 0 0 0 0 0 0 0 0 0 0 0 0 0 0 25 91 18
19 15 4 3 0 3 3 4 28 68 16 99 100 99 28 79 0 0 0 0 0 0 0 0 0 0 5 4 0 0 0 0 0 0 0 0 0 0 0 0 0 0 0 4 14 12 0
0 2 28 34 50 92 100 42 79 5 70 100 100 52 2 67 6 0 0 0 0 4 0 0 0 0 0 62 3 0 0 0 0 0 0 0 0 0 0 0 0 0 0 1 5 0 0
9 10 93 99 100 100 100 85 66 90 100 94 8 46 90 14 2 0 0 0 1 28 14 0 0 0 0 0 3 2 0 0 0 0 0 0 0 0 0 0 0 0 0 0 0 0 0
7 9 62 85 100 100 100 100 72 60 100 5 11 8 89 0 0 0 0 0 32 99 12 5 4 3 0 0 0 0 1 0 0 0 0 0 0 0 0 0 0 0 0 0 0 0 0
5 5 89 100 100 100 53 54 12 100 100 1 0 0 4 0 0 0 0 0 42 99 67 5 5 4 0 0 0 0 0 0 0 0 0 0 0 0 0 0 0 0 0 0 0 0 0
30 7 100 100 100 100 51 10 100 98 0 4 0 0 0 0 0 0 1 64 7 100 56 8 0 4 0 0 0 0 0 0 0 0 0 0 0 0 0 0 0 0 0 0 0 0 0
75 35 73 100 100 29 5 65 37 4 3 5 0 4 3 3 1 0 4 97 100 50 92 60 5 1 0 0 0 0 0 0 0 0 0 0 0 0 0 0 0 0 0 0 0 0 0
43 5 90 97 47 5 91 35 100 7 15 0 0 0 5 44 11 8 31 26 20 100 100 71 100 74 2 0 0 0 0 4 2 5 5 4 4 2 0 0 0 0 0 0 0 0 0
8 6 99 70 6 21 100 100 88 1 4 2 0 80 95 99 84 90 12 0 8 81 100 32 57 19 5 5 0 0 0 0 5 2 0 2 81 100 55 3 0 0 0 0 0 0 0
5 7 100 36 3 100 98 98 2 5 42 3 0 6 94 100 100 22 100 60 9 6 0 2 3 5 5 5 0 0 0 0 0 10 5 0 0 5 5 5 0 0 0 0 0 0 0
5 37 100 20 5 100 100 22 0 0 2 0 2 5 100 99 100 99 95 100 5 2 5 5 0 0 0 3 5 2 0 0 0 0 23 5 2 5 3 3 4 0 0 0 3 0 0
100 17 100 54 67 100 100 2 0 0 0 0 2 5 58 33 99 100 62 44 91 100 87 3 0 0 0 0 0 1 2 5 4 0 0 1 7 5 5 0 0 4 5 1 0 0 0
78 9 98 81 100 100 100 0 2 0 0 0 0 99 68 100 100 80 91 100 82 100 100 100 32 5 5 1 0 0 0 0 0 5 5 5 0 5 64 10 0 0 2 4 5 1 0
7 51 27 100 100 14 6 5 0 0 0 0 0 11 87 16 100 100 100 96 43 38 12 52 31 91 54 4 0 0 0 0 0 0 0 0 0 2 4 59 11 3 0 14 65 5 0
59 86 88 100 100 100 21 4 0 0 0 0 0 0 0 13 99 79 66 88 100 100 97 76 76 5 4 0 0 0 0 1 0 0 0 0 0 0 4 0 4 4 5 1 19 72 5
98 68 80 90 100 99 81 1 0 0 0 0 0 0 0 0 0 0 5 0 0 0 5 5 0 0 0 0 5 5 5 5 5 5 5 0 0 2 5 30 1 0 0 0 0 2 60
91 97 100 100 100 100 100 34 0 0 0 0 0 0 0 0 0 0 0 0 0 0 2 3 0 0 0 0 1 6 28 56 5 3 4 5 5 5 60 14 44 3 4 0 0 51 0
100 100 100 100 100 100 100 0 1 0 0 0 0 0 0 0 0 0 0 0 0 0 0 3 5 0 0 1 6 19 56 86 39 52 6 45 20 45 97 93 30 6 4 4 15 30 25
100 100 100 100 100 100 97 1 5 0 0 0 0 0 0 0 0 0 4 0 0 0 0 0 1 0 5 6 6 96 98 98 97 71 5 45 84 73 100 76 41 8 11 5 6 5 49
100 100 100 100 100 100 82 4 5 0 0 0 0 0 0 5 3 5 5 5 22 5 0 2 2 0 0 15 40 81 100 92 90 66 53 48 8 13 5 5 5 4 3 39 100 100 97

GFSGBSN_prec_cloud_069.txt.gz
Cloud_Cover
100 100 100 100 100 80 6 0 0 0 0 3 6 33 46 95 100 17 10 11 20 18 16 26 22 1 0 0 0 0 0 0 0 0 0 0 0 0 0 0 0 60 11 0 0 5 5
33 100 96 100 100 61 0 0 0 0 9 85 99 99 22 60 18 13 15 17 15 11 22 21 81 0 0 0 0 0 0 0 0 0 0 0 0 0 0 0 0 0 0 0 0 2 10
99 100 73 100 100 0 1 1 1 72 100 100 100 70 20 97 5 30 89 100 96 7 17 22 100 4 0 0 0 0 0 0 0 0 0 0 0 0 0 0 0 0 0 0 0 0 3
27 98 86 4 0 0 0 51 100 100 100 100 100 100 40 37 30 100 100 100 67 100 56 1 92 2 0 0 0 0 0 0 0 0 0 0 0 0 0 0 0 0 0 0 0 0 0
100 45 11 8 5 61 86 100 100 100 100 100 100 45 92 100 100 100 100 8 37 0 1 32 6 0 0 0 0 0 0 0 0 0 0 0 0 0 0 0 0 0 0 0 2 0 0
16 62 79 89 99 100 100 100 100 100 100 100 63 0 37 100 100 100 23 4 13 2 18 5 0 0 0 0 0 0 0 0 0 0 0 0 0 0 0 0 0 0 0 0 0 0 0
19 99 100 100 100 100 100 100 100 100 100 97 5 15 95 100 100 100 14 0 0 0 0 0 0 0 0 0 0 0 0 0 0 0 0 0 0 0 0 0 0 0 0 0 0 0 0
100 100 100 100 100 100 100 100 40 70 37 8 46 82 100 100 100 75 3 1 1 5 0 0 0 0 79 18 0 0 0 0 0 0 0 0 0 0 0 0 0 0 0 0 0 0 0
100 100 100 100 100 100 100 89 4 9 9 5 48 100 100 100 12 8 40 84 59 5 5 0 0 0 0 0 0 0 0 0 0 0 0 0 0 0 0 0 0 0 0 0 0 0 2
100 100 100 100 100 100 100 53 0 0 4 22 100 100 100 98 6 6 64 12 5 7 69 1 0 0 0 0 0 0 0 0 0 0 0 0 0 0 0 0 0 0 0 0 0 5 5
97 100 80 100 100 100 53 0 0 4 39 100 100 100 100 98 0 0 2 7 5 9 52 29 21 4 5 3 0 0 0 0 0 0 0 0 0 0 0 0 0 0 0 0 0 5 0
2 100 100 100 100 25 0 12 18 35 100 100 100 100 98 31 0 0 0 0 0 0 0 0 4 2 5 14 5 0 1 0 0 0 0 0 0 0 0 0 0 0 0 0 0 0 0
30 21 96 100 24 0 3 27 30 68 100 100 100 88 10 0 0 0 0 0 0 1 0 0 7 8 100 100 100 11 5 5 2 0 0 0 0 0 0 0 0 0 0 0 0 0 0
10 9 99 88 0 0 0 22 39 70 100 100 32 0 0 0 0 0 0 0 0 2 27 52 99 100 100 100 100 100 32 29 57 14 0 0 0 0 0 0 0 0 0 0 0 0 0
5 3 100 100 0 2 4 24 32 71 100 72 0 0 2 1 3 0 1 0 5 71 100 100 100 100 100 100 98 99 84 100 100 100 95 0 0 0 0 0 0 0 0 0 0 0 0
3 8 100 100 2 7 2 35 76 52 70 25 0 2 38 57 17 46 5 20 16 100 100 100 100 100 100 99 88 98 100 100 100 100 100 67 0 0 0 0 0 0 0 0 0 0 0
0 12 98 93 5 5 3 15 21 27 29 0 0 0 67 67 65 100 16 97 5 99 100 100 100 100 100 100 100 100 100 100 100 100 100 100 68 0 0 0 0 0 0 0 0 0 0
5 5 52 78 5 64 4 2 5 2 0 0 0 0 5 94 97 100 82 6 43 59 43 78 100 100 100 100 100 100 100 100 100 100 100 100 100 88 5 1 0 0 0 0 0 0 0
5 6 68 42 5 4 21 5 10 0 0 0 0 0 2 100 66 48 100 100 40 5 62 97 27 40 100 100 100 100 100 100 100 98 100 100 100 100 71 14 4 0 0 0 0 0 0
95 54 84 94 5 5 5 12 8 0 0 0 0 0 0 99 99 15 19 100 100 68 63 72 100 100 100 98 100 100 86 80 90 43 86 87 100 100 100 58 5 5 0 0 0 0 0
47 100 100 97 15 100 95 32 95 1 0 0 0 0 0 2 48 100 17 5 76 100 88 88 97 100 100 100 91 78 10 1 0 0 0 1 22 75 66 22 5 0 2 0 0 0 0
100 99 100 100 100 100 36 97 100 4 0 0 0 0 0 0 0 6 82 100 96 52 77 90 70 94 66 100 100 100 6 4 0 0 0 0 0 4 71 74 16 5 21 0 5 3 0
100 100 100 100 100 100 100 83 100 30 1 0 0 0 0 0 0 0 0 4 5 5 5 13 14 45 92 99 93 100 100 62 5 4 4 0 0 0 5 5 5 0 0 2 4 5 5
100 100 100 100 100 100 100 100 99 25 4 0 0 0 0 0 0 0 0 0 0 0 1 5 5 14 5 18 9 87 69 60 14 7 5 5 2 0 0 0 2 3 1 0 0 0 0
100 100 100 100 100 100 100 100 97 12 34 3 0 0 0 0 5 0 0 0 0 0 0 0 3 1 2 1 3 5 6 24 5 5 7 5 5 3 0 0 0 0 0 0 0 12 15
100 100 100 100 100 100 100 100 99 98 43 5 0 0 0 5 14 73 0 0 0 0 0 0 0 0 0 5 5 5 5 5 5 4 5 5 5 4 1 0 0 0 0 0 0 0 31
100 100 100 100 100 100 100 100 100 100 82 5 2 0 0 7 92 99 4 0 0 0 0 0 0 0 0 0 4 6 23 6 8 2 4 4 5 3 5 5 4 0 0 0 3 21 0
100 100 100 100 100 100 100 100 100 100 100 6 4 0 0 0 67 45 4 0 5 5 0 0 0 0 0 1 6 20 10 27 12 8 5 2 5 13 70 39 4 1 4 4 1 0 0
100 100 100 100 100 100 100 100 100 100 97 5 0 0 0 0 2 1 5 5 5 5 0 0 3 4 4 0 26 21 44 71 15 5 5 10 3 4 4 0 0 0 0 0 0 0 1

GFSGBSN_prec_cloud_072.txt.gz
Cloud_Cover
17 100 100 72 92 0 0 0 1 3 20 89 77 57 18 5 13 10 0 14 18 17 19 23 2 0 14 0 0 0 0 0 0 0 0 0 0 0 0 0 11 46 0 0 4 5 47
58 18 95 86 0 0 0 6 78 99 100 100 100 100 28 14 15 14 26 86 100 90 21 18 0 0 0 0 0 0 0 0 0 0 0 0 0 0 0 0 9 49 18 0 0 2 78
92 84 4 0 2 9 84 100 100 100 100 100 100 100 100 100 91 98 100 100 96 100 46 19 0 0 0 0 0 0 0 0 0 0 0 0 0 0 0 0 0 0 7 0 0 2 33
21 78 99 87 100 100 100 100 100 100 100 100 100 100 99 99 100 100 100 90 47 76 100 11 11 0 0 0 0 0 0 0 0 0 0 0 0 0 0 0 0 0 0 2 0 0 2
5 100 100 100 100 100 100 100 100 100 100 100 100 27 100 100 100 84 73 85 58 11 18 66 3 0 0 0 0 0 0 0 0 0 0 0 0 0 0 0 0 0 3 5 0 0 0
71 100 100 100 100 100 100 100 100 100 100 100 15 39 98 100 100 96 13 10 14 8 0 0 0 0 0 0 0 0 0 0 0 0 0 0 0 0 0 0 0 0 4 40 3 0 0
97 100 100 100 100 100 100 100 49 0 0 3 4 99 100 100 100 100 2 0 0 0 0 0 0 0 0 0 0 0 0 0 0 0 0 0 0 0 0 0 0 0 2 9 0 1 2
23 100 87 100 100 94 79 58 0 0 0 6 100 100 100 95 100 10 11 0 0 0 0 0 0 0 0 0 0 0 0 0 0 0 0 0 0 0 0 0 0 0 0 4 0 0 3
64 100 100 100 100 97 6 0 0 0 22 100 100 98 100 100 29 29 5 4 0 1 4 0 0 0 0 0 0 0 0 0 0 0 0 0 0 0 0 0 0 0 0 4 3 1 0
99 100 100 100 62 0 2 0 0 20 100 100 100 100 100 8 48 0 5 0 1 5 36 4 0 0 0 0 0 0 0 0 0 0 0 0 0 0 0 0 0 0 0 0 0 0 0
52 100 100 84 55 0 0 0 22 100 100 100 100 100 96 52 0 0 0 0 0 2 0 8 56 83 6 5 0 0 0 0 0 0 0 0 0 0 0 0 0 29 0 0 0 0 3
21 100 81 86 4 0 0 5 40 100 79 89 100 100 96 30 0 0 0 0 0 0 2 5 5 24 88 27 5 0 0 0 0 0 0 1 0 0 0 0 0 16 0 0 0 0 0
22 18 100 62 0 0 1 16 47 100 92 86 100 88 49 0 0 0 0 0 0 2 0 0 5 5 17 5 6 5 0 0 1 1 1 0 0 0 0 0 0 0 0 0 0 0 0
1 0 100 98 0 0 0 32 58 100 98 100 52 15 1 0 0 0 0 0 33 0 0 0 0 74 49 26 70 74 2 2 4 2 42 0 0 0 0 0 0 0 2 0 0 0 0
0 0 22 20 1 0 0 8 41 74 99 77 37 0 0 0 24 3 2 53 0 4 5 5 49 100 49 100 99 82 32 6 5 10 62 8 6 0 0 0 0 0 3 19 2 2 0
5 1 52 78 5 5 4 5 22 34 38 13 0 0 0 5 44 43 5 5 41 55 95 75 99 89 100 100 95 100 97 36 99 100 100 64 31 0 0 0 0 0 0 1 0 1 0
5 5 7 6 5 41 52 5 24 6 7 1 0 4 0 100 84 100 20 5 6 99 100 100 100 100 100 99 100 96 100 97 100 100 100 100 42 0 0 0 0 0 0 0 2 1 0
5 51 98 35 35 85 60 5 7 5 3 62 0 1 4 17 99 100 49 5 2 5 100 100 100 100 100 100 100 100 100 100 76 100 99 98 86 76 3 0 0 0 0 0 0 4 0
6 96 100 96 75 100 100 65 10 5 5 0 0 0 2 99 36 99 100 48 5 18 20 60 75 100 99 100 100 100 100 99 100 71 100 98 77 100 100 2 0 0 0 0 0 0 7
86 100 100 99 87 100 100 100 100 39 5 9 0 0 0 2 10 30 100 100 65 5 52 76 33 56 77 99 100 100 100 100 97 100 5 65 100 100 76 100 3 0 0 0 0 0 34
100 98 100 100 100 100 100 100 100 37 5 4 0 0 0 0 0 54 7 97 100 100 96 26 100 100 94 96 40 50 65 100 100 100 99 5 89 100 100 98 100 16 0 0 0 0 2
100 100 100 100 100 100 100 100 100 89 39 49 0 0 0 0 0 0 0 8 52 74 99 100 50 100 100 100 100 100 73 5 5 18 5 5 3 5 99 100 100 100 54 0 0 0 0
100 100 100 100 100 100 100 100 100 100 32 24 3 0 0 0 0 0 0 0 0 5 15 5 67 82 100 100 100 100 100 52 3 0 0 0 2 5 6 100 100 100 100 100 100 100 4
100 100 100 100 100 100 100 100 100 100 97 54 2 0 0 4 2 0 0 0 0 4 3 4 20 24 42 95 100 100 100 100 84 6 0 0 0 0 0 3 94 99 100 100 83 73 31
100 100 100 100 100 100 100 100 100 100 100 68 4 0 0 2 5 0 0 0 0 3 5 5 4 3 7 56 13 70 100 100 100 100 78 5 0 0 0 0 0 2 46 57 26 13 5
100 100 100 100 100 100 100 100 100 100 100 9 5 1 0 0 4 1 0 0 0 0 4 5 0 0 1 5 5 41 40 64 50 96 100 100 84 18 5 4 0 0 0 0 5 5 1
100 100 100 100 100 100 100 100 100 100 100 78 5 1 0 0 0 0 0 1 0 0 0 1 5 4 0 4 23 41 28 5 10 5 6 43 53 29 27 5 5 2 0 0 0 5 5
100 100 100 100 100 100 100 100 100 100 100 90 5 2 0 0 0 0 0 0 0 1 0 0 2 0 0 2 4 5 5 7 6 12 5 5 5 10 8 63 21 4 0 2 1 0 0
100 100 100 100 100 100 100 100 100 100 100 100 20 0 0 0 0 0 5 5 4 0 0 0 0 0 0 0 1 5 5 5 5 5 2 5 9 66 8 19 2 4 5 0 0 0 0

GFSGBSN_prec_cloud_075.txt.gz
Cloud_Cover
24 13 12 0 2 4 4 63 100 100 100 100 100 100 100 55 12 5 20 22 50 44 78 15 2 0 5 0 0 0 0 0 0 0 0 0 0 0 0 21 64 97 100 26 5 5 44
0 4 11 10 4 82 100 100 100 100 100 100 100 100 100 91 87 65 30 64 100 45 18 14 0 0 0 0 0 0 0 0 0 0 0 0 0 0 0 0 40 81 82 65 17 28 41
19 31 61 99 100 100 100 100 100 100 100 100 100 100 100 100 100 100 100 100 32 97 99 24 0 0 0 0 0 0 0 0 0 0 0 0 0 0 0 0 1 25 84 2 4 0 84
9 52 100 100 100 100 100 100 100 100 100 100 100 100 100 100 100 100 100 63 0 39 39 24 2 0 0 0 0 0 0 0 0 0 0 0 0 0 0 0 0 0 1 79 26 0 5
98 100 100 100 100 100 100 100 100 91 80 36 7 13 100 100 100 100 92 0 22 1 0 0 3 0 0 0 0 0 0 0 0 0 0 0 0 0 0 0 0 0 5 43 76 1 18
7 85 96 100 100 93 47 16 11 0 0 0 24 30 100 100 100 100 9 3 14 44 0 0 0 0 0 0 0 0 0 0 0 0 0 0 0 0 0 0 0 0 3 60 100 3 5
14 9 100 100 100 97 19 0 0 0 6 72 100 100 72 100 100 68 25 5 2 4 0 0 0 0 0 0 0 0 0 0 0 0 0 0 0 0 0 0 0 4 2 100 100 16 39
85 61 100 100 93 0 0 0 0 7 98 100 100 100 100 100 96 61 16 5 5 4 2 0 0 0 0 0 0 0 0 0 0 0 0 0 0 0 0 0 0 0 5 55 59 52 62
0 94 57 96 38 0 0 0 0 68 100 100 100 100 100 88 6 35 5 59 39 86 26 0 0 0 0 0 0 0 0 0 0 0 0 0 0 0 0 0 0 0 5 74 70 0 2
0 4 10 41 0 0 0 0 4 100 99 100 100 99 18 0 52 0 0 1 10 5 5 2 0 0 0 0 0 0 0 0 0 0 0 0 0 0 0 0 4 4 1 67 59 7 5
5 0 1 60 0 0 0 0 21 100 100 100 100 92 0 82 0 0 0 0 0 0 14 3 3 2 0 0 0 0 0 0 0 0 0 0 0 0 0 0 2 5 0 7 99 4 7
0 0 8 6 0 0 0 0 71 100 100 100 79 97 29 0 0 0 0 0 0 0 74 12 5 5 5 5 1 1 0 0 0 0 1 0 0 0 0 0 1 24 74 5 5 5 3
1 1 4 1 0 0 0 4 78 100 100 36 0 0 40 0 0 0 0 0 1 71 81 10 4 5 5 94 5 3 0 0 0 4 1 0 4 0 0 0 3 31 53 5 5 5 2
4 0 0 2 0 0 0 7 22 49 5 0 0 39 0 0 0 0 0 9 100 71 82 2 0 5 5 20 90 9 5 0 2 19 85 0 0 0 0 3 57 5 6 1 3 2 4
0 4 2 3 0 0 2 3 5 2 5 1 38 0 0 0 5 3 20 100 94 2 1 0 0 98 100 100 100 100 93 77 99 13 51 100 78 6 4 26 92 21 5 4 100 66 52
5 5 18 73 29 8 9 5 6 5 5 0 0 5 2 2 5 7 85 43 1 0 0 16 69 100 100 100 91 100 100 100 92 6 4 94 100 0 0 4 45 65 61 12 88 98 100
5 53 94 92 98 48 65 16 8 32 5 14 0 48 0 2 77 78 98 19 4 26 36 83 97 98 12 100 100 100 100 7 92 100 63 88 100 47 2 0 0 1 4 5 99 45 100
59 98 82 100 100 100 100 84 100 48 36 70 0 97 4 0 41 100 88 2 4 99 100 100 93 98 95 77 93 71 100 10 7 83 100 92 90 82 1 4 0 0 4 4 5 3 42
52 100 100 100 80 100 100 100 100 100 99 2 0 0 0 0 100 6 97 44 2 22 4 75 88 100 100 100 100 96 94 5 73 5 22 70 100 100 18 1 0 0 0 1 5 73 71
100 100 100 100 100 100 100 100 100 100 100 13 5 4 0 0 0 1 10 100 49 5 20 4 34 100 75 100 100 100 100 68 98 91 5 87 88 96 100 98 37 4 0 0 4 6 29
100 100 100 100 100 100 100 100 100 100 100 63 5 0 0 0 0 0 4 1 100 19 89 11 62 20 66 100 100 93 100 100 98 100 83 44 53 88 54 5 21 88 4 0 0 0 100
100 100 100 100 100 100 100 100 100 100 100 97 16 2 0 0 0 0 0 0 4 53 33 71 54 99 78 63 93 100 62 84 100 99 100 19 100 100 79 10 89 73 1 0 0 2 4
100 100 100 100 100 100 100 100 100 100 100 100 25 2 0 0 0 0 0 0 0 0 5 5 33 90 100 100 100 62 5 5 7 99 100 90 67 94 100 100 100 86 100 78 0 0 58
100 100 100 100 100 100 100 100 100 100 100 100 100 0 0 0 0 0 0 0 0 0 3 5 5 5 26 99 100 100 100 97 57 6 100 100 100 61 100 100 100 100 100 100 100 51 3
100 100 100 100 100 100 100 100 100 100 100 100 99 1 0 0 0 0 0 0 0 0 0 0 0 4 5 5 73 100 100 100 100 100 17 5 16 74 11 100 100 100 100 100 100 62 100
100 100 100 100 100 100 100 100 100 100 100 100 80 26 1 1 1 0 0 0 1 0 0 0 0 0 0 30 23 90 100 100 100 100 100 84 7 5 5 24 99 69 100 100 100 100 100
100 100 100 100 100 100 100 100 100 100 100 100 31 90 1 5 0 0 5 5 1 0 2 0 0 1 1 5 43 87 91 8 83 100 100 100 99 34 5 5 11 4 0 70 100 100 100
100 100 100 100 100 100 100 100 100 100 100 100 5 100 2 3 2 0 0 2 5 38 9 4 1 2 1 3 5 10 5 5 5 6 42 100 100 100 69 59 66 39 0 0 3 68 96
100 100 100 100 100 100 100 100 100 100 100 100 52 100 2 0 30 0 0 5 5 5 45 26 5 5 5 4 1 5 5 5 5 5 2 5 63 95 94 100 25 10 5 4 4 4 0

GFSGBSN_prec_cloud_078.txt.gz
Cloud_Cover
10 11 21 70 57 100 100 100 100 100 100 100 100 100 100 100 99 48 21 16 25 35 9 7 4 1 0 0 0 0 0 0 0 0 0 0 0 0 1 98 78 91 96 95 35 49 28
24 14 77 100 100 100 100 100 100 100 100 100 100 100 100 100 100 100 100 100 93 18 18 8 2 0 0 0 0 0 0 0 0 0 0 0 0 0 3 100 40 37 32 92 43 100 68
70 42 100 100 100 100 100 100 100 83 100 100 100 25 100 100 100 100 100 100 16 34 100 41 11 0 0 0 0 0 0 0 0 0 0 0 0 0 0 3 86 2 82 59 19 32 6
7 88 100 100 100 100 9 90 78 0 0 2 3 55 93 100 100 90 65 21 0 65 64 63 2 0 0 0 0 0 0 0 0 0 0 0 0 0 0 0 3 59 25 91 36 4 5
8 24 100 100 100 100 13 0 0 0 0 0 2 23 95 100 100 41 0 0 0 82 0 20 0 0 0 0 0 0 0 0 0 0 0 0 0 0 0 0 0 0 5 10 96 71 4
18 29 80 100 60 4 0 0 0 1 32 73 99 100 100 100 100 36 0 0 0 35 2 0 0 0 0 0 0 0 0 0 0 0 0 0 0 0 0 0 0 0 0 91 10 81 78
8 40 50 100 25 0 0 0 0 69 100 100 98 78 98 98 100 59 2 0 0 0 0 0 0 0 0 0 0 0 0 0 0 0 0 0 0 0 0 0 0 4 1 72 36 27 68
3 1 18 62 0 0 0 0 0 77 100 100 96 99 88 13 6 1 9 3 0 0 0 0 0 0 0 0 0 0 0 0 0 0 0 0 0 0 0 0 0 0 73 79 76 100 100
0 0 2 12 0 0 0 0 0 99 96 100 100 86 45 0 8 37 0 15 7 0 0 0 0 0 0 0 0 0 0 0 0 0 0 0 0 0 0 0 0 0 0 54 69 100 100
0 0 0 0 0 0 0 0 9 100 100 100 100 100 15 1 22 0 0 0 18 40 1 5 0 0 0 0 0 0 0 0 0 0 0 0 0 0 0 0 0 0 0 65 44 100 36
0 0 0 0 0 0 0 0 51 100 100 100 79 97 40 82 0 0 0 0 0 0 61 19 5 2 0 0 2 0 0 0 0 0 0 0 0 0 0 0 0 0 3 64 8 98 5
0 0 5 0 0 0 0 0 9 100 66 20 4 2 36 11 0 0 0 0 0 0 97 84 17 6 18 5 2 3 0 0 0 2 0 0 0 0 0 0 4 5 5 40 100 100 23
8 5 5 4 0 0 0 0 0 15 15 6 5 0 51 0 0 0 0 0 32 69 100 98 35 19 6 25 81 12 3 0 0 4 10 4 0 0 0 0 1 4 5 4 35 90 31
72 5 5 5 2 5 4 0 1 6 1 5 6 44 2 0 0 0 0 42 100 76 65 93 81 12 30 10 57 52 5 1 0 5 70 25 1 3 0 0 0 5 5 33 5 5 5
92 5 92 6 5 5 8 4 5 5 5 70 32 1 0 0 0 1 43 100 100 100 100 18 0 72 64 89 96 37 97 85 16 22 100 92 39 10 0 0 0 27 9 63 100 3 16
94 100 100 36 99 88 100 10 65 50 5 72 2 0 1 0 0 91 71 55 100 100 10 5 86 95 100 100 99 99 100 100 100 100 1 67 25 97 2 0 8 82 18 23 89 88 21
100 100 100 100 100 98 95 77 100 92 78 100 5 28 16 0 9 63 79 67 18 1 3 33 29 37 99 100 98 93 100 80 88 39 3 44 45 92 90 0 0 24 90 7 61 95 62
100 100 100 100 100 100 100 100 100 100 80 91 28 91 2 0 77 52 73 5 0 96 31 4 5 66 100 64 0 6 84 96 97 98 100 99 76 100 78 4 0 95 93 56 0 3 48
100 94 100 100 100 100 100 100 100 100 100 100 100 5 2 1 90 100 3 100 10 44 58 100 58 76 42 2 77 100 100 38 100 100 100 20 31 88 98 66 0 0 0 5 65 80 27
67 99 100 100 100 100 100 100 100 100 100 100 98 100 3 0 0 2 2 3 97 28 22 6 26 100 100 18 87 97 82 29 10 82 100 100 100 100 41 93 64 0 0 0 0 26 93
100 100 100 99 100 100 100 100 100 100 100 100 99 5 2 6 0 0 0 0 1 45 43 20 2 40 91 85 100 100 100 0 62 38 5 100 100 100 100 100 62 58 2 1 0 0 100
100 100 100 100 100 100 100 100 100 100 100 100 98 11 0 5 0 4 0 0 4 0 5 17 59 18 99 100 86 55 77 92 100 34 5 76 92 100 100 100 68 82 100 87 4 0 100
100 100 100 100 100 100 100 100 100 100 100 100 91 54 0 5 3 2 0 0 0 0 0 5 8 100 58 56 37 100 93 92 100 100 62 100 99 41 89 100 100 100 32 16 5 21 100
100 99 100 100 100 100 100 100 100 100 100 100 92 100 3 4 1 0 0 0 0 0 1 0 1 4 99 100 96 4 3 6 79 100 83 100 100 98 78 94 71 92 98 13 10 93 92
100 100 100 98 100 100 100 100 100 100 100 81 63 86 3 44 0 0 0 0 0 0 0 0 0 0 0 72 100 100 100 89 11 12 100 100 100 100 100 78 93 98 64 100 100 100 10
100 99 82 100 100 100 100 100 100 100 100 100 72 47 66 56 18 0 0 1 21 5 3 0 0 0 0 10 84 97 100 100 100 100 51 6 100 91 100 87 97 100 97 12 93 100 64
96 100 69 94 96 100 100 100 100 100 96 100 43 46 100 38 4 0 5 31 0 0 20 27 0 0 0 56 8 21 50 99 100 100 100 98 78 100 35 83 100 100 98 100 100 98 34
59 100 67 98 100 100 100 100 100 100 100 100 24 100 100 81 4 0 0 0 0 3 98 36 53 34 3 4 37 8 2 3 5 88 100 100 98 61 59 93 100 32 100 100 100 100 100
47 99 75 99 100 100 100 100 100 100 100 100 91 100 100 99 73 0 0 0 4 4 6 6 71 5 13 28 4 5 5 5 5 15 4 64 100 100 100 91 10 99 66 100 100 100 100